Wetterdaten: Donnerstag, 13.02.2020
Datum Zeit Temp. Aussen Temp. o. S. Temp +5cm Feuchte Auss Luftdruck Regen Sonnenschein Regendauer Solar Windben Empfang
13.02.2020 00:00 3,9 C 3,3 C 2,8 C 84 % 1017,1 hPa 0,0 l/m 0 min 0 min 0 W/m 19,3 km/h (3 Bft) 95,74 %
13.02.2020 00:02 3,9 C 3,3 C 2,8 C 84 % 1017,1 hPa 0,0 l/m 0 min 0 min 0 W/m 16,1 km/h (3 Bft) 93,75 %
13.02.2020 00:04 3,9 C 3,3 C 2,8 C 84 % 1017,0 hPa 0,0 l/m 0 min 0 min 0 W/m 16,1 km/h (3 Bft) 95,74 %
13.02.2020 00:08 3,9 C 2,8 C 2,2 C 84 % 1017,0 hPa 0,0 l/m 0 min 0 min 0 W/m 16,1 km/h (3 Bft) 94,62 %
13.02.2020 00:10 3,8 C 2,8 C 2,2 C 84 % 1017,1 hPa 0,0 l/m 0 min 0 min 0 W/m 16,1 km/h (3 Bft) 95,74 %
13.02.2020 00:12 3,9 C 2,8 C 2,2 C 84 % 1017,0 hPa 0,0 l/m 0 min 0 min 0 W/m 12,9 km/h (3 Bft) 95,74 %
13.02.2020 00:14 3,8 C 2,8 C 2,2 C 84 % 1017,0 hPa 0,0 l/m 0 min 0 min 0 W/m 16,1 km/h (3 Bft) 95,74 %
13.02.2020 00:16 3,8 C 2,8 C 2,2 C 85 % 1017,0 hPa 0,0 l/m 0 min 0 min 0 W/m 6,4 km/h (2 Bft) 95,74 %
13.02.2020 00:18 3,8 C 2,8 C 2,2 C 85 % 1017,0 hPa 0,0 l/m 0 min 0 min 0 W/m 19,3 km/h (3 Bft) 95,74 %
13.02.2020 00:20 3,8 C 2,8 C 2,2 C 85 % 1017,0 hPa 0,0 l/m 0 min 0 min 0 W/m 6,4 km/h (2 Bft) 97,83 %
13.02.2020 00:22 3,8 C 2,8 C 2,2 C 85 % 1017,0 hPa 0,0 l/m 0 min 0 min 0 W/m 19,3 km/h (3 Bft) 97,87 %
13.02.2020 00:24 3,8 C 2,8 C 2,2 C 85 % 1016,9 hPa 0,0 l/m 0 min 0 min 0 W/m 3,2 km/h (1 Bft) 97,87 %
13.02.2020 00:26 3,8 C 2,8 C 2,2 C 85 % 1017,0 hPa 0,0 l/m 0 min 0 min 0 W/m 19,3 km/h (3 Bft) 93,62 %
13.02.2020 00:28 3,8 C 2,8 C 2,2 C 85 % 1016,9 hPa 0,0 l/m 0 min 0 min 0 W/m 16,1 km/h (3 Bft) 100,00 %
13.02.2020 00:30 3,8 C 3,3 C 2,2 C 85 % 1016,9 hPa 0,0 l/m 0 min 0 min 0 W/m 12,9 km/h (3 Bft) 100,00 %
13.02.2020 00:32 3,8 C 3,3 C 2,8 C 85 % 1017,0 hPa 0,0 l/m 0 min 0 min 0 W/m 16,1 km/h (3 Bft) 100,00 %
13.02.2020 00:34 3,8 C 3,3 C 2,8 C 85 % 1017,0 hPa 0,0 l/m 0 min 0 min 0 W/m 16,1 km/h (3 Bft) 100,00 %
13.02.2020 00:36 3,8 C 3,3 C 2,8 C 86 % 1016,9 hPa 0,0 l/m 0 min 0 min 0 W/m 12,9 km/h (3 Bft) 100,00 %
13.02.2020 00:38 3,8 C 3,3 C 2,8 C 86 % 1017,0 hPa 0,0 l/m 0 min 0 min 0 W/m 16,1 km/h (3 Bft) 100,00 %
13.02.2020 00:40 3,8 C 3,3 C 2,8 C 86 % 1017,0 hPa 0,0 l/m 0 min 0 min 0 W/m 6,4 km/h (2 Bft) 100,00 %
13.02.2020 00:42 3,8 C 3,3 C 2,8 C 86 % 1017,0 hPa 0,0 l/m 0 min 0 min 0 W/m 12,9 km/h (3 Bft) 100,00 %
13.02.2020 00:44 3,8 C 3,3 C 2,2 C 86 % 1017,0 hPa 0,0 l/m 0 min 0 min 0 W/m 9,7 km/h (2 Bft) 100,00 %
13.02.2020 00:46 3,8 C 2,8 C 2,2 C 86 % 1017,0 hPa 0,0 l/m 0 min 0 min 0 W/m 6,4 km/h (2 Bft) 100,00 %
13.02.2020 00:48 3,8 C 3,3 C 2,2 C 86 % 1016,9 hPa 0,0 l/m 0 min 0 min 0 W/m 12,9 km/h (3 Bft) 100,00 %
13.02.2020 00:50 3,8 C 3,3 C 2,2 C 86 % 1017,0 hPa 0,0 l/m 0 min 0 min 0 W/m 12,9 km/h (3 Bft) 100,00 %
13.02.2020 00:52 3,8 C 2,8 C 2,2 C 86 % 1016,9 hPa 0,0 l/m 0 min 0 min 0 W/m 16,1 km/h (3 Bft) 97,87 %
13.02.2020 00:54 3,8 C 2,8 C 2,2 C 86 % 1016,9 hPa 0,0 l/m 0 min 0 min 0 W/m 12,9 km/h (3 Bft) 97,87 %
13.02.2020 00:56 3,8 C 2,8 C 2,2 C 86 % 1016,9 hPa 0,0 l/m 0 min 0 min 0 W/m 16,1 km/h (3 Bft) 100,00 %
13.02.2020 00:58 3,7 C 2,8 C 2,2 C 86 % 1016,9 hPa 0,0 l/m 0 min 0 min 0 W/m 9,7 km/h (2 Bft) 100,00 %
13.02.2020 01:00 3,7 C 2,8 C 2,2 C 86 % 1016,9 hPa 0,0 l/m 0 min 0 min 0 W/m 16,1 km/h (3 Bft) 100,00 %
13.02.2020 01:02 3,7 C 2,8 C 2,2 C 86 % 1016,8 hPa 0,0 l/m 0 min 0 min 0 W/m 16,1 km/h (3 Bft) 100,00 %
13.02.2020 01:04 3,7 C 2,8 C 2,2 C 86 % 1016,8 hPa 0,0 l/m 0 min 0 min 0 W/m 12,9 km/h (3 Bft) 100,00 %
13.02.2020 01:06 3,7 C 2,8 C 2,2 C 86 % 1016,8 hPa 0,0 l/m 0 min 0 min 0 W/m 6,4 km/h (2 Bft) 100,00 %
13.02.2020 01:08 3,7 C 2,8 C 2,2 C 86 % 1016,7 hPa 0,0 l/m 0 min 0 min 0 W/m 16,1 km/h (3 Bft) 100,00 %
13.02.2020 01:10 3,7 C 2,8 C 2,2 C 86 % 1016,7 hPa 0,0 l/m 0 min 0 min 0 W/m 12,9 km/h (3 Bft) 97,87 %
13.02.2020 01:12 3,7 C 2,8 C 2,2 C 86 % 1016,6 hPa 0,0 l/m 0 min 0 min 0 W/m 12,9 km/h (3 Bft) 100,00 %
13.02.2020 01:14 3,6 C 2,8 C 2,2 C 86 % 1016,6 hPa 0,0 l/m 0 min 0 min 0 W/m 6,4 km/h (2 Bft) 97,87 %
13.02.2020 01:16 3,6 C 2,8 C 1,7 C 86 % 1016,6 hPa 0,0 l/m 0 min 0 min 0 W/m 12,9 km/h (3 Bft) 95,74 %
13.02.2020 01:18 3,6 C 2,8 C 2,2 C 86 % 1016,5 hPa 0,0 l/m 0 min 0 min 0 W/m 19,3 km/h (3 Bft) 95,65 %
13.02.2020 01:20 3,6 C 2,8 C 2,2 C 86 % 1016,5 hPa 0,0 l/m 0 min 0 min 0 W/m 9,7 km/h (2 Bft) 97,87 %
13.02.2020 01:22 3,6 C 2,8 C 2,2 C 86 % 1016,5 hPa 0,0 l/m 0 min 0 min 0 W/m 9,7 km/h (2 Bft) 97,87 %
13.02.2020 01:24 3,5 C 2,2 C 1,7 C 86 % 1016,5 hPa 0,0 l/m 0 min 0 min 0 W/m 6,4 km/h (2 Bft) 97,87 %
13.02.2020 01:26 3,4 C 2,2 C 1,7 C 86 % 1016,4 hPa 0,0 l/m 0 min 0 min 0 W/m 6,4 km/h (2 Bft) 97,87 %
13.02.2020 01:28 3,4 C 2,2 C 1,7 C 86 % 1016,3 hPa 0,0 l/m 0 min 0 min 0 W/m 19,3 km/h (3 Bft) 97,87 %
13.02.2020 01:30 3,4 C 2,2 C 1,7 C 86 % 1016,3 hPa 0,0 l/m 0 min 0 min 0 W/m 6,4 km/h (2 Bft) 97,83 %
13.02.2020 01:32 3,4 C 2,2 C 1,7 C 86 % 1016,3 hPa 0,0 l/m 0 min 0 min 0 W/m 12,9 km/h (3 Bft) 97,87 %
13.02.2020 01:34 3,4 C 2,2 C 1,7 C 86 % 1016,3 hPa 0,0 l/m 0 min 0 min 0 W/m 12,9 km/h (3 Bft) 97,87 %
13.02.2020 01:36 3,3 C 2,2 C 1,7 C 86 % 1016,3 hPa 0,0 l/m 0 min 0 min 0 W/m 12,9 km/h (3 Bft) 97,87 %
13.02.2020 01:38 3,3 C 2,2 C 1,7 C 86 % 1016,2 hPa 0,0 l/m 0 min 0 min 0 W/m 6,4 km/h (2 Bft) 97,87 %
13.02.2020 01:40 3,3 C 2,2 C 1,7 C 86 % 1016,2 hPa 0,0 l/m 0 min 0 min 0 W/m 12,9 km/h (3 Bft) 97,87 %
13.02.2020 01:42 3,3 C 2,2 C 1,7 C 86 % 1016,1 hPa 0,0 l/m 0 min 0 min 0 W/m 19,3 km/h (3 Bft) 95,65 %
13.02.2020 01:44 3,3 C 2,8 C 1,7 C 86 % 1016,1 hPa 0,0 l/m 0 min 0 min 0 W/m 12,9 km/h (3 Bft) 97,87 %
13.02.2020 01:46 3,3 C 2,2 C 1,7 C 87 % 1016,0 hPa 0,0 l/m 0 min 0 min 0 W/m 6,4 km/h (2 Bft) 95,74 %
13.02.2020 01:48 3,3 C 2,2 C 1,7 C 87 % 1015,9 hPa 0,0 l/m 0 min 0 min 0 W/m 6,4 km/h (2 Bft) 97,87 %
13.02.2020 01:50 3,2 C 2,2 C 1,7 C 87 % 1015,9 hPa 0,0 l/m 0 min 0 min 0 W/m 12,9 km/h (3 Bft) 95,74 %
13.02.2020 01:52 3,2 C 2,2 C 1,7 C 87 % 1015,8 hPa 0,0 l/m 0 min 0 min 0 W/m 6,4 km/h (2 Bft) 97,87 %
13.02.2020 01:54 3,2 C 2,2 C 1,7 C 87 % 1015,7 hPa 0,0 l/m 0 min 0 min 0 W/m 12,9 km/h (3 Bft) 97,83 %
13.02.2020 01:56 3,2 C 2,2 C 1,7 C 87 % 1015,6 hPa 0,0 l/m 0 min 0 min 0 W/m 19,3 km/h (3 Bft) 97,87 %
13.02.2020 01:58 3,2 C 2,2 C 1,7 C 87 % 1015,6 hPa 0,0 l/m 0 min 0 min 0 W/m 12,9 km/h (3 Bft) 95,74 %
13.02.2020 02:00 3,2 C 2,2 C 1,7 C 87 % 1015,6 hPa 0,0 l/m 0 min 0 min 0 W/m 6,4 km/h (2 Bft) 95,74 %
13.02.2020 02:02 3,2 C 2,2 C 1,7 C 87 % 1015,6 hPa 0,0 l/m 0 min 0 min 0 W/m 12,9 km/h (3 Bft) 95,74 %
13.02.2020 02:04 3,1 C 2,2 C 1,7 C 87 % 1015,7 hPa 0,0 l/m 0 min 0 min 0 W/m 12,9 km/h (3 Bft) 95,65 %
13.02.2020 02:06 3,1 C 2,2 C 1,7 C 87 % 1015,7 hPa 0,0 l/m 0 min 0 min 0 W/m 12,9 km/h (3 Bft) 93,62 %
13.02.2020 02:08 3,1 C 2,2 C 1,7 C 87 % 1015,7 hPa 0,0 l/m 0 min 0 min 0 W/m 12,9 km/h (3 Bft) 95,74 %
13.02.2020 02:10 3,1 C 2,2 C 1,7 C 87 % 1015,7 hPa 0,0 l/m 0 min 0 min 0 W/m 6,4 km/h (2 Bft) 93,62 %
13.02.2020 02:12 3,1 C 2,2 C 1,7 C 87 % 1015,6 hPa 0,0 l/m 0 min 0 min 0 W/m 3,2 km/h (1 Bft) 93,62 %
13.02.2020 02:14 3,1 C 2,2 C 1,7 C 87 % 1015,6 hPa 0,0 l/m 0 min 0 min 0 W/m 6,4 km/h (2 Bft) 93,62 %
13.02.2020 02:16 3,1 C 2,2 C 1,7 C 88 % 1015,6 hPa 0,0 l/m 0 min 0 min 0 W/m 6,4 km/h (2 Bft) 95,65 %
13.02.2020 02:18 3,1 C 2,2 C 1,1 C 88 % 1015,6 hPa 0,0 l/m 0 min 0 min 0 W/m 3,2 km/h (1 Bft) 95,74 %
13.02.2020 02:20 3,1 C 1,7 C 1,1 C 88 % 1015,6 hPa 0,0 l/m 0 min 0 min 0 W/m 12,9 km/h (3 Bft) 95,74 %
13.02.2020 02:22 3,0 C 1,7 C 1,1 C 88 % 1015,7 hPa 0,0 l/m 0 min 0 min 0 W/m 6,4 km/h (2 Bft) 95,74 %
13.02.2020 02:24 3,0 C 1,7 C 1,1 C 88 % 1015,6 hPa 0,0 l/m 0 min 0 min 0 W/m 12,9 km/h (3 Bft) 97,87 %
13.02.2020 02:26 2,9 C 1,7 C 1,1 C 88 % 1015,6 hPa 0,0 l/m 0 min 0 min 0 W/m 0,0 km/h (0 Bft) 97,87 %
13.02.2020 02:28 2,9 C 1,7 C 1,1 C 88 % 1015,6 hPa 0,0 l/m 0 min 0 min 0 W/m 0,0 km/h (0 Bft) 97,83 %
13.02.2020 02:30 2,9 C 1,7 C 1,1 C 88 % 1015,6 hPa 0,0 l/m 0 min 0 min 0 W/m 6,4 km/h (2 Bft) 97,87 %
13.02.2020 02:32 2,9 C 1,7 C 1,1 C 88 % 1015,6 hPa 0,0 l/m 0 min 0 min 0 W/m 12,9 km/h (3 Bft) 97,87 %
13.02.2020 02:34 2,8 C 1,7 C 1,1 C 88 % 1015,5 hPa 0,0 l/m 0 min 0 min 0 W/m 12,9 km/h (3 Bft) 100,00 %
13.02.2020 02:36 2,8 C 1,7 C 1,1 C 88 % 1015,5 hPa 0,0 l/m 0 min 0 min 0 W/m 16,1 km/h (3 Bft) 100,00 %
13.02.2020 02:38 2,8 C 1,7 C 1,1 C 88 % 1015,5 hPa 0,0 l/m 0 min 0 min 0 W/m 12,9 km/h (3 Bft) 98,11 %
13.02.2020 02:40 2,8 C 1,7 C 1,1 C 88 % 1015,4 hPa 0,0 l/m 0 min 0 min 0 W/m 6,4 km/h (2 Bft) 100,00 %
13.02.2020 02:42 2,8 C 2,2 C 1,1 C 88 % 1015,4 hPa 0,0 l/m 0 min 0 min 0 W/m 16,1 km/h (3 Bft) 97,87 %
13.02.2020 02:44 2,8 C 2,2 C 1,1 C 89 % 1015,4 hPa 0,0 l/m 0 min 0 min 0 W/m 12,9 km/h (3 Bft) 97,87 %
13.02.2020 02:46 2,8 C 2,2 C 1,1 C 89 % 1015,4 hPa 0,0 l/m 0 min 0 min 0 W/m 12,9 km/h (3 Bft) 97,87 %
13.02.2020 02:48 2,8 C 2,2 C 1,7 C 89 % 1015,3 hPa 0,0 l/m 0 min 0 min 0 W/m 0,0 km/h (0 Bft) 97,87 %
13.02.2020 02:50 2,7 C 2,2 C 1,7 C 89 % 1015,3 hPa 0,0 l/m 0 min 0 min 0 W/m 12,9 km/h (3 Bft) 97,83 %
13.02.2020 02:52 2,7 C 2,2 C 1,7 C 89 % 1015,3 hPa 0,0 l/m 0 min 0 min 0 W/m 16,1 km/h (3 Bft) 97,87 %
13.02.2020 02:54 2,7 C 2,2 C 1,7 C 89 % 1015,3 hPa 0,0 l/m 0 min 0 min 0 W/m 12,9 km/h (3 Bft) 97,87 %
13.02.2020 02:56 2,7 C 2,2 C 1,7 C 89 % 1015,2 hPa 0,0 l/m 0 min 0 min 0 W/m 12,9 km/h (3 Bft) 97,87 %
13.02.2020 02:58 2,7 C 2,2 C 1,7 C 89 % 1015,3 hPa 0,0 l/m 0 min 0 min 0 W/m 16,1 km/h (3 Bft) 95,74 %
13.02.2020 03:00 2,7 C 2,2 C 1,7 C 89 % 1015,2 hPa 0,0 l/m 0 min 0 min 0 W/m 16,1 km/h (3 Bft) 97,83 %
13.02.2020 03:02 2,7 C 2,2 C 1,7 C 89 % 1015,2 hPa 0,0 l/m 0 min 0 min 0 W/m 16,1 km/h (3 Bft) 97,87 %
13.02.2020 03:04 2,7 C 2,2 C 1,7 C 89 % 1015,2 hPa 0,0 l/m 0 min 0 min 0 W/m 12,9 km/h (3 Bft) 97,87 %
13.02.2020 03:06 2,7 C 2,2 C 1,7 C 89 % 1015,1 hPa 0,0 l/m 0 min 0 min 0 W/m 6,4 km/h (2 Bft) 97,87 %
13.02.2020 03:08 2,7 C 2,2 C 1,7 C 89 % 1015,1 hPa 0,0 l/m 0 min 0 min 0 W/m 12,9 km/h (3 Bft) 97,87 %
13.02.2020 03:10 2,7 C 2,2 C 1,7 C 89 % 1015,1 hPa 0,0 l/m 0 min 0 min 0 W/m 12,9 km/h (3 Bft) 97,87 %
13.02.2020 03:12 2,7 C 2,2 C 1,7 C 90 % 1015,0 hPa 0,0 l/m 0 min 0 min 0 W/m 6,4 km/h (2 Bft) 95,65 %
13.02.2020 03:14 2,8 C 2,2 C 1,7 C 90 % 1015,0 hPa 0,0 l/m 0 min 0 min 0 W/m 12,9 km/h (3 Bft) 97,87 %
13.02.2020 03:16 2,7 C 2,2 C 1,7 C 90 % 1014,9 hPa 0,0 l/m 0 min 0 min 0 W/m 6,4 km/h (2 Bft) 95,74 %
13.02.2020 03:18 2,8 C 2,2 C 1,7 C 90 % 1014,9 hPa 0,0 l/m 0 min 0 min 0 W/m 16,1 km/h (3 Bft) 97,87 %
13.02.2020 03:20 2,8 C 2,2 C 1,7 C 90 % 1014,9 hPa 0,0 l/m 0 min 0 min 0 W/m 0,0 km/h (0 Bft) 95,74 %
13.02.2020 03:22 2,8 C 2,2 C 1,7 C 90 % 1014,8 hPa 0,0 l/m 0 min 0 min 0 W/m 0,0 km/h (0 Bft) 95,74 %
13.02.2020 03:24 2,8 C 2,2 C 1,7 C 90 % 1014,8 hPa 0,0 l/m 0 min 0 min 0 W/m 0,0 km/h (0 Bft) 97,83 %
13.02.2020 03:26 2,8 C 2,2 C 1,7 C 90 % 1014,7 hPa 0,0 l/m 0 min 0 min 0 W/m 0,0 km/h (0 Bft) 97,87 %
13.02.2020 03:28 2,8 C 2,2 C 1,7 C 90 % 1014,6 hPa 0,0 l/m 0 min 0 min 0 W/m 0,0 km/h (0 Bft) 97,87 %
13.02.2020 03:30 2,8 C 2,2 C 1,7 C 90 % 1014,6 hPa 0,0 l/m 0 min 0 min 0 W/m 0,0 km/h (0 Bft) 100,00 %
13.02.2020 03:32 2,8 C 2,2 C 1,7 C 90 % 1014,5 hPa 0,0 l/m 0 min 0 min 0 W/m 12,9 km/h (3 Bft) 100,00 %
13.02.2020 03:34 2,8 C 2,2 C 1,7 C 90 % 1014,5 hPa 0,0 l/m 0 min 0 min 0 W/m 12,9 km/h (3 Bft) 100,00 %
13.02.2020 03:36 2,8 C 2,2 C 1,7 C 90 % 1014,5 hPa 0,0 l/m 0 min 0 min 0 W/m 19,3 km/h (3 Bft) 100,00 %
13.02.2020 03:38 2,8 C 2,2 C 1,7 C 89 % 1014,5 hPa 0,0 l/m 0 min 0 min 0 W/m 19,3 km/h (3 Bft) 100,00 %
13.02.2020 03:40 2,8 C 2,2 C 1,7 C 89 % 1014,4 hPa 0,0 l/m 0 min 0 min 0 W/m 12,9 km/h (3 Bft) 100,00 %
13.02.2020 03:42 2,8 C 2,2 C 1,7 C 89 % 1014,4 hPa 0,0 l/m 0 min 0 min 0 W/m 6,4 km/h (2 Bft) 100,00 %
13.02.2020 03:44 2,8 C 2,2 C 1,1 C 89 % 1014,3 hPa 0,0 l/m 0 min 0 min 0 W/m 6,4 km/h (2 Bft) 100,00 %
13.02.2020 03:46 2,8 C 2,2 C 1,7 C 89 % 1014,3 hPa 0,0 l/m 0 min 0 min 0 W/m 16,1 km/h (3 Bft) 100,00 %
13.02.2020 03:48 2,8 C 2,2 C 1,7 C 89 % 1014,3 hPa 0,0 l/m 0 min 0 min 0 W/m 12,9 km/h (3 Bft) 100,00 %
13.02.2020 03:50 2,8 C 2,2 C 1,7 C 89 % 1014,2 hPa 0,0 l/m 0 min 0 min 0 W/m 12,9 km/h (3 Bft) 97,87 %
13.02.2020 03:52 2,7 C 2,2 C 1,7 C 89 % 1014,2 hPa 0,0 l/m 0 min 0 min 0 W/m 12,9 km/h (3 Bft) 100,00 %
13.02.2020 03:54 2,7 C 2,2 C 1,7 C 89 % 1014,1 hPa 0,0 l/m 0 min 0 min 0 W/m 16,1 km/h (3 Bft) 100,00 %
13.02.2020 03:56 2,7 C 2,2 C 1,1 C 89 % 1014,1 hPa 0,0 l/m 0 min 0 min 0 W/m 12,9 km/h (3 Bft) 100,00 %
13.02.2020 03:58 2,7 C 2,2 C 1,1 C 89 % 1014,2 hPa 0,0 l/m 0 min 0 min 0 W/m 6,4 km/h (2 Bft) 97,83 %
13.02.2020 04:00 2,7 C 1,7 C 1,1 C 89 % 1014,2 hPa 0,0 l/m 0 min 0 min 0 W/m 12,9 km/h (3 Bft) 100,00 %
13.02.2020 04:02 2,7 C 1,7 C 1,1 C 89 % 1014,2 hPa 0,0 l/m 0 min 0 min 0 W/m 16,1 km/h (3 Bft) 100,00 %
13.02.2020 04:04 2,7 C 1,7 C 1,1 C 89 % 1014,1 hPa 0,0 l/m 0 min 0 min 0 W/m 16,1 km/h (3 Bft) 100,00 %
13.02.2020 04:06 2,6 C 1,7 C 1,1 C 89 % 1014,1 hPa 0,0 l/m 0 min 0 min 0 W/m 16,1 km/h (3 Bft) 100,00 %
13.02.2020 04:08 2,6 C 1,7 C 1,1 C 89 % 1014,1 hPa 0,0 l/m 0 min 0 min 0 W/m 12,9 km/h (3 Bft) 97,87 %
13.02.2020 04:10 2,6 C 1,7 C 1,1 C 89 % 1014,0 hPa 0,0 l/m 0 min 0 min 0 W/m 12,9 km/h (3 Bft) 95,65 %
13.02.2020 04:12 2,6 C 1,7 C 1,1 C 89 % 1014,0 hPa 0,0 l/m 0 min 0 min 0 W/m 19,3 km/h (3 Bft) 95,74 %
13.02.2020 04:14 2,5 C 1,7 C 1,1 C 89 % 1014,0 hPa 0,0 l/m 0 min 0 min 0 W/m 16,1 km/h (3 Bft) 97,87 %
13.02.2020 04:16 2,5 C 1,7 C 1,1 C 89 % 1014,0 hPa 0,0 l/m 0 min 0 min 0 W/m 12,9 km/h (3 Bft) 95,74 %
13.02.2020 04:18 2,4 C 1,7 C 1,1 C 89 % 1013,9 hPa 0,0 l/m 0 min 0 min 0 W/m 16,1 km/h (3 Bft) 97,87 %
13.02.2020 04:20 2,4 C 1,1 C 1,1 C 89 % 1013,7 hPa 0,0 l/m 0 min 0 min 0 W/m 12,9 km/h (3 Bft) 95,74 %
13.02.2020 04:22 2,4 C 1,1 C 0,6 C 89 % 1013,6 hPa 0,0 l/m 0 min 0 min 0 W/m 19,3 km/h (3 Bft) 95,65 %
13.02.2020 04:24 2,4 C 1,1 C 0,6 C 89 % 1013,5 hPa 0,0 l/m 0 min 0 min 0 W/m 12,9 km/h (3 Bft) 95,74 %
13.02.2020 04:26 2,3 C 1,1 C 0,6 C 89 % 1013,5 hPa 0,0 l/m 0 min 0 min 0 W/m 16,1 km/h (3 Bft) 95,74 %
13.02.2020 04:28 2,3 C 1,1 C 0,6 C 89 % 1013,6 hPa 0,0 l/m 0 min 0 min 0 W/m 19,3 km/h (3 Bft) 97,87 %
13.02.2020 04:30 2,3 C 1,1 C 0,6 C 89 % 1013,5 hPa 0,0 l/m 0 min 0 min 0 W/m 19,3 km/h (3 Bft) 97,87 %
13.02.2020 04:32 2,3 C 1,1 C 0,6 C 89 % 1013,5 hPa 0,0 l/m 0 min 0 min 0 W/m 12,9 km/h (3 Bft) 97,87 %
13.02.2020 04:34 2,2 C 1,1 C 0,6 C 89 % 1013,5 hPa 0,0 l/m 0 min 0 min 0 W/m 19,3 km/h (3 Bft) 97,83 %
13.02.2020 04:36 2,2 C 1,1 C 0,6 C 89 % 1013,5 hPa 0,0 l/m 0 min 0 min 0 W/m 19,3 km/h (3 Bft) 95,74 %
13.02.2020 04:38 2,1 C 1,1 C 0,6 C 89 % 1013,4 hPa 0,0 l/m 0 min 0 min 0 W/m 16,1 km/h (3 Bft) 97,87 %
13.02.2020 04:40 2,1 C 1,1 C 0,6 C 89 % 1013,4 hPa 0,0 l/m 0 min 0 min 0 W/m 16,1 km/h (3 Bft) 97,87 %
13.02.2020 04:42 2,1 C 1,1 C 0,6 C 89 % 1013,2 hPa 0,0 l/m 0 min 0 min 0 W/m 6,4 km/h (2 Bft) 95,74 %
13.02.2020 04:44 2,1 C 1,1 C 0,6 C 90 % 1013,2 hPa 0,0 l/m 0 min 0 min 0 W/m 12,9 km/h (3 Bft) 97,87 %
13.02.2020 04:46 2,1 C 1,1 C 0,6 C 90 % 1013,2 hPa 0,0 l/m 0 min 0 min 0 W/m 12,9 km/h (3 Bft) 97,83 %
13.02.2020 04:48 2,1 C 1,1 C 0,6 C 90 % 1013,2 hPa 0,0 l/m 0 min 0 min 0 W/m 16,1 km/h (3 Bft) 97,87 %
13.02.2020 04:50 2,1 C 1,1 C 0,6 C 90 % 1013,1 hPa 0,0 l/m 0 min 0 min 0 W/m 19,3 km/h (3 Bft) 100,00 %
13.02.2020 04:52 2,0 C 1,1 C 0,6 C 90 % 1013,1 hPa 0,0 l/m 0 min 0 min 0 W/m 19,3 km/h (3 Bft) 100,00 %
13.02.2020 04:54 2,0 C 1,1 C 0,6 C 90 % 1013,0 hPa 0,0 l/m 0 min 0 min 0 W/m 19,3 km/h (3 Bft) 100,00 %
13.02.2020 04:56 2,0 C 1,1 C 0,6 C 90 % 1013,0 hPa 0,0 l/m 0 min 0 min 0 W/m 12,9 km/h (3 Bft) 100,00 %
13.02.2020 04:58 2,0 C 1,1 C 0,6 C 90 % 1013,0 hPa 0,0 l/m 0 min 0 min 0 W/m 19,3 km/h (3 Bft) 100,00 %
13.02.2020 05:00 2,0 C 1,1 C 0,6 C 90 % 1013,0 hPa 0,0 l/m 0 min 0 min 0 W/m 16,1 km/h (3 Bft) 100,00 %
13.02.2020 05:02 2,0 C 1,1 C 0,6 C 90 % 1013,1 hPa 0,0 l/m 0 min 0 min 0 W/m 3,2 km/h (1 Bft) 100,00 %
13.02.2020 05:04 2,0 C 1,1 C 0,6 C 90 % 1012,9 hPa 0,0 l/m 0 min 0 min 0 W/m 3,2 km/h (1 Bft) 100,00 %
13.02.2020 05:06 1,9 C 1,1 C 0,6 C 90 % 1012,9 hPa 0,0 l/m 0 min 0 min 0 W/m 12,9 km/h (3 Bft) 100,00 %
13.02.2020 05:08 1,9 C 1,1 C 0,6 C 90 % 1012,9 hPa 0,0 l/m 0 min 0 min 0 W/m 6,4 km/h (2 Bft) 100,00 %
13.02.2020 05:10 1,9 C 1,1 C 0,6 C 91 % 1012,9 hPa 0,0 l/m 0 min 0 min 0 W/m 12,9 km/h (3 Bft) 100,00 %
13.02.2020 05:12 1,9 C 1,1 C 0,6 C 91 % 1012,8 hPa 0,0 l/m 0 min 0 min 0 W/m 3,2 km/h (1 Bft) 100,00 %
13.02.2020 05:14 1,9 C 1,1 C 0,6 C 91 % 1012,8 hPa 0,0 l/m 0 min 0 min 0 W/m 16,1 km/h (3 Bft) 100,00 %
13.02.2020 05:16 1,9 C 1,1 C 0,6 C 91 % 1012,9 hPa 0,0 l/m 0 min 0 min 0 W/m 12,9 km/h (3 Bft) 97,87 %
13.02.2020 05:18 1,9 C 1,1 C 0,6 C 91 % 1012,9 hPa 0,0 l/m 0 min 0 min 0 W/m 19,3 km/h (3 Bft) 100,00 %
13.02.2020 05:20 1,9 C 1,1 C 0,6 C 91 % 1012,9 hPa 0,0 l/m 0 min 0 min 0 W/m 12,9 km/h (3 Bft) 100,00 %
13.02.2020 05:22 1,9 C 1,1 C 0,6 C 91 % 1012,9 hPa 0,0 l/m 0 min 0 min 0 W/m 6,4 km/h (2 Bft) 97,87 %
13.02.2020 05:24 1,9 C 1,7 C 1,1 C 91 % 1012,9 hPa 0,0 l/m 0 min 0 min 0 W/m 12,9 km/h (3 Bft) 97,87 %
13.02.2020 05:26 1,9 C 1,7 C 1,1 C 91 % 1012,8 hPa 0,0 l/m 0 min 0 min 0 W/m 16,1 km/h (3 Bft) 95,74 %
13.02.2020 05:28 2,0 C 1,7 C 1,1 C 91 % 1012,8 hPa 0,0 l/m 0 min 0 min 0 W/m 22,5 km/h (4 Bft) 95,74 %
13.02.2020 05:30 2,0 C 1,7 C 1,1 C 91 % 1012,7 hPa 0,0 l/m 0 min 0 min 0 W/m 19,3 km/h (3 Bft) 97,87 %
13.02.2020 05:32 2,0 C 1,7 C 1,1 C 91 % 1012,6 hPa 0,0 l/m 0 min 0 min 0 W/m 12,9 km/h (3 Bft) 97,83 %
13.02.2020 05:34 2,0 C 1,7 C 1,1 C 91 % 1012,6 hPa 0,0 l/m 0 min 0 min 0 W/m 12,9 km/h (3 Bft) 95,74 %
13.02.2020 05:36 2,1 C 1,7 C 1,1 C 91 % 1012,6 hPa 0,0 l/m 0 min 0 min 0 W/m 16,1 km/h (3 Bft) 95,74 %
13.02.2020 05:38 2,1 C 1,7 C 1,1 C 91 % 1012,6 hPa 0,0 l/m 0 min 0 min 0 W/m 12,9 km/h (3 Bft) 97,87 %
13.02.2020 05:40 2,1 C 1,7 C 1,1 C 91 % 1012,6 hPa 0,0 l/m 0 min 0 min 0 W/m 22,5 km/h (4 Bft) 93,62 %
13.02.2020 05:42 2,1 C 1,7 C 1,1 C 91 % 1012,6 hPa 0,0 l/m 0 min 0 min 0 W/m 12,9 km/h (3 Bft) 95,74 %
13.02.2020 05:44 2,1 C 1,7 C 1,1 C 91 % 1012,6 hPa 0,0 l/m 0 min 0 min 0 W/m 16,1 km/h (3 Bft) 95,65 %
13.02.2020 05:46 2,1 C 1,7 C 1,1 C 91 % 1012,5 hPa 0,0 l/m 0 min 0 min 0 W/m 22,5 km/h (4 Bft) 95,74 %
13.02.2020 05:48 2,1 C 1,7 C 1,1 C 91 % 1012,4 hPa 0,0 l/m 0 min 0 min 0 W/m 22,5 km/h (4 Bft) 95,74 %
13.02.2020 05:50 2,1 C 1,7 C 1,1 C 91 % 1012,4 hPa 0,0 l/m 0 min 0 min 0 W/m 19,3 km/h (3 Bft) 95,74 %
13.02.2020 05:52 2,1 C 1,7 C 1,1 C 91 % 1012,3 hPa 0,0 l/m 0 min 0 min 0 W/m 16,1 km/h (3 Bft) 93,62 %
13.02.2020 05:54 2,1 C 1,7 C 1,1 C 92 % 1012,2 hPa 0,0 l/m 0 min 0 min 0 W/m 6,4 km/h (2 Bft) 95,65 %
13.02.2020 05:56 2,1 C 1,7 C 1,1 C 92 % 1012,2 hPa 0,0 l/m 0 min 0 min 0 W/m 19,3 km/h (3 Bft) 95,74 %
13.02.2020 05:58 2,2 C 1,7 C 1,1 C 92 % 1012,1 hPa 0,0 l/m 0 min 0 min 0 W/m 12,9 km/h (3 Bft) 95,74 %
13.02.2020 06:00 2,2 C 1,7 C 1,1 C 92 % 1012,0 hPa 0,0 l/m 0 min 0 min 0 W/m 6,4 km/h (2 Bft) 95,74 %
13.02.2020 06:02 2,2 C 1,7 C 1,1 C 92 % 1012,1 hPa 0,0 l/m 0 min 0 min 0 W/m 19,3 km/h (3 Bft) 93,62 %
13.02.2020 06:04 2,2 C 1,7 C 1,1 C 92 % 1011,9 hPa 0,0 l/m 0 min 0 min 0 W/m 12,9 km/h (3 Bft) 95,74 %
13.02.2020 06:06 2,2 C 1,7 C 1,1 C 92 % 1011,9 hPa 0,0 l/m 0 min 0 min 0 W/m 16,1 km/h (3 Bft) 97,83 %
13.02.2020 06:08 2,2 C 1,7 C 1,1 C 92 % 1011,8 hPa 0,0 l/m 0 min 0 min 0 W/m 19,3 km/h (3 Bft) 95,74 %
13.02.2020 06:10 2,2 C 1,7 C 1,1 C 92 % 1011,7 hPa 0,0 l/m 0 min 0 min 0 W/m 22,5 km/h (4 Bft) 91,49 %
13.02.2020 06:12 2,2 C 1,7 C 1,1 C 92 % 1011,7 hPa 0,0 l/m 0 min 0 min 0 W/m 32,2 km/h (5 Bft) 95,74 %
13.02.2020 06:14 2,3 C 1,7 C 1,1 C 92 % 1011,6 hPa 0,0 l/m 0 min 0 min 0 W/m 19,3 km/h (3 Bft) 95,74 %
13.02.2020 06:16 2,3 C 2,2 C 1,1 C 92 % 1011,5 hPa 0,0 l/m 0 min 0 min 0 W/m 22,5 km/h (4 Bft) 91,49 %
13.02.2020 06:18 2,3 C 2,2 C 1,1 C 92 % 1011,5 hPa 0,0 l/m 0 min 0 min 0 W/m 16,1 km/h (3 Bft) 95,65 %
13.02.2020 06:20 2,3 C 2,2 C 1,1 C 92 % 1011,4 hPa 0,0 l/m 0 min 0 min 0 W/m 29,0 km/h (5 Bft) 95,74 %
13.02.2020 06:22 2,4 C 2,2 C 1,1 C 92 % 1011,4 hPa 0,0 l/m 0 min 0 min 0 W/m 19,3 km/h (3 Bft) 95,74 %
13.02.2020 06:24 2,4 C 2,2 C 1,7 C 92 % 1011,4 hPa 0,0 l/m 0 min 0 min 0 W/m 22,5 km/h (4 Bft) 97,87 %
13.02.2020 06:26 2,4 C 2,2 C 1,1 C 92 % 1011,3 hPa 0,0 l/m 0 min 0 min 0 W/m 16,1 km/h (3 Bft) 97,87 %
13.02.2020 06:28 2,4 C 2,2 C 1,7 C 92 % 1011,2 hPa 0,0 l/m 0 min 0 min 0 W/m 25,7 km/h (4 Bft) 100,00 %
13.02.2020 06:30 2,4 C 2,2 C 1,7 C 91 % 1011,2 hPa 0,0 l/m 0 min 0 min 0 W/m 25,7 km/h (4 Bft) 97,87 %
13.02.2020 06:32 2,5 C 2,2 C 1,7 C 91 % 1011,2 hPa 0,0 l/m 0 min 0 min 0 W/m 22,5 km/h (4 Bft) 100,00 %
13.02.2020 06:34 2,5 C 2,2 C 1,7 C 92 % 1011,1 hPa 0,0 l/m 0 min 0 min 0 W/m 25,7 km/h (4 Bft) 100,00 %
13.02.2020 06:36 2,5 C 2,2 C 1,7 C 92 % 1011,1 hPa 0,0 l/m 0 min 0 min 0 W/m 25,7 km/h (4 Bft) 97,87 %
13.02.2020 06:38 2,6 C 2,2 C 1,7 C 92 % 1011,0 hPa 0,0 l/m 0 min 0 min 0 W/m 19,3 km/h (3 Bft) 95,74 %
13.02.2020 06:40 2,6 C 2,2 C 1,7 C 92 % 1010,9 hPa 0,0 l/m 0 min 0 min 0 W/m 12,9 km/h (3 Bft) 95,74 %
13.02.2020 06:42 2,6 C 2,2 C 1,7 C 92 % 1010,9 hPa 0,0 l/m 0 min 0 min 0 W/m 22,5 km/h (4 Bft) 97,83 %
13.02.2020 06:44 2,6 C 2,2 C 1,7 C 92 % 1010,8 hPa 0,0 l/m 0 min 0 min 0 W/m 29,0 km/h (5 Bft) 97,87 %
13.02.2020 06:46 2,6 C 2,2 C 1,7 C 92 % 1010,8 hPa 0,0 l/m 0 min 0 min 0 W/m 22,5 km/h (4 Bft) 45,95 %
13.02.2020 06:48 2,7 C 2,2 C 1,7 C 91 % 1010,7 hPa 0,0 l/m 0 min 0 min 0 W/m 38,6 km/h (5 Bft) 97,87 %
13.02.2020 06:50 2,7 C 2,2 C 1,7 C 91 % 1010,7 hPa 0,0 l/m 0 min 0 min 0 W/m 25,7 km/h (4 Bft) 97,87 %
13.02.2020 06:52 2,7 C 2,2 C 1,7 C 91 % 1010,6 hPa 0,0 l/m 0 min 0 min 0 W/m 22,5 km/h (4 Bft) 97,83 %
13.02.2020 06:54 2,7 C 2,2 C 1,7 C 91 % 1010,5 hPa 0,0 l/m 0 min 0 min 0 W/m 25,7 km/h (4 Bft) 97,87 %
13.02.2020 06:56 2,8 C 2,2 C 1,7 C 91 % 1010,4 hPa 0,0 l/m 0 min 0 min 0 W/m 25,7 km/h (4 Bft) 97,87 %
13.02.2020 06:58 2,8 C 2,2 C 1,7 C 91 % 1010,3 hPa 0,0 l/m 0 min 0 min 0 W/m 35,4 km/h (5 Bft) 97,87 %
13.02.2020 07:00 2,8 C 2,2 C 1,7 C 91 % 1010,3 hPa 0,0 l/m 0 min 0 min 0 W/m 32,2 km/h (5 Bft) 95,74 %
13.02.2020 07:02 2,8 C 2,2 C 1,7 C 91 % 1010,2 hPa 0,0 l/m 0 min 0 min 0 W/m 25,7 km/h (4 Bft) 97,87 %
13.02.2020 07:04 2,8 C 2,2 C 1,7 C 91 % 1010,2 hPa 0,0 l/m 0 min 0 min 0 W/m 19,3 km/h (3 Bft) 97,96 %
13.02.2020 07:06 2,8 C 2,2 C 1,7 C 91 % 1010,1 hPa 0,0 l/m 0 min 0 min 0 W/m 22,5 km/h (4 Bft) 97,87 %
13.02.2020 07:08 2,8 C 2,2 C 1,7 C 91 % 1010,0 hPa 0,0 l/m 0 min 0 min 0 W/m 35,4 km/h (5 Bft) 95,74 %
13.02.2020 07:10 2,9 C 2,2 C 1,7 C 91 % 1009,9 hPa 0,0 l/m 0 min 0 min 0 W/m 25,7 km/h (4 Bft) 97,87 %
13.02.2020 07:12 2,9 C 2,8 C 1,7 C 91 % 1009,8 hPa 0,0 l/m 0 min 0 min 0 W/m 32,2 km/h (5 Bft) 95,74 %
13.02.2020 07:14 2,9 C 2,8 C 1,7 C 91 % 1009,8 hPa 0,0 l/m 0 min 0 min 0 W/m 38,6 km/h (5 Bft) 97,83 %
13.02.2020 07:16 2,9 C 2,8 C 1,7 C 91 % 1009,7 hPa 0,0 l/m 0 min 0 min 0 W/m 35,4 km/h (5 Bft) 97,87 %
13.02.2020 07:18 3,0 C 2,8 C 1,7 C 91 % 1009,6 hPa 0,0 l/m 0 min 0 min 0 W/m 38,6 km/h (5 Bft) 100,00 %
13.02.2020 07:20 3,0 C 2,8 C 2,2 C 91 % 1009,5 hPa 0,0 l/m 0 min 0 min 0 W/m 38,6 km/h (5 Bft) 100,00 %
13.02.2020 07:22 3,1 C 2,8 C 2,2 C 91 % 1009,5 hPa 0,0 l/m 0 min 0 min 0 W/m 25,7 km/h (4 Bft) 100,00 %
13.02.2020 07:24 3,1 C 2,8 C 2,2 C 91 % 1009,4 hPa 0,0 l/m 0 min 0 min 0 W/m 22,5 km/h (4 Bft) 100,00 %
13.02.2020 07:26 3,1 C 2,8 C 2,2 C 91 % 1009,4 hPa 0,0 l/m 0 min 0 min 0 W/m 25,7 km/h (4 Bft) 100,00 %
13.02.2020 07:28 3,1 C 2,8 C 2,2 C 91 % 1009,3 hPa 0,0 l/m 0 min 0 min 0 W/m 25,7 km/h (4 Bft) 97,87 %
13.02.2020 07:30 3,1 C 2,8 C 2,2 C 91 % 1009,3 hPa 0,0 l/m 0 min 0 min 0 W/m 22,5 km/h (4 Bft) 100,00 %
13.02.2020 07:32 3,1 C 2,8 C 2,2 C 91 % 1009,2 hPa 0,0 l/m 0 min 0 min 0 W/m 25,7 km/h (4 Bft) 100,00 %
13.02.2020 07:34 3,1 C 2,8 C 2,2 C 91 % 1009,1 hPa 0,0 l/m 0 min 0 min 0 W/m 19,3 km/h (3 Bft) 95,74 %
13.02.2020 07:36 3,1 C 2,8 C 2,2 C 91 % 1009,0 hPa 0,0 l/m 0 min 0 min 0 W/m 22,5 km/h (4 Bft) 97,87 %
13.02.2020 07:38 3,1 C 2,8 C 2,2 C 91 % 1009,0 hPa 0,0 l/m 0 min 0 min 0 W/m 38,6 km/h (5 Bft) 97,83 %
13.02.2020 07:40 3,1 C 2,8 C 2,2 C 91 % 1009,0 hPa 0,0 l/m 0 min 0 min 0 W/m 35,4 km/h (5 Bft) 100,00 %
13.02.2020 07:42 3,2 C 2,8 C 2,2 C 91 % 1008,9 hPa 0,0 l/m 0 min 0 min 0 W/m 22,5 km/h (4 Bft) 100,00 %
13.02.2020 07:44 3,2 C 2,8 C 2,2 C 91 % 1008,8 hPa 0,0 l/m 0 min 0 min 0 W/m 32,2 km/h (5 Bft) 97,87 %
13.02.2020 07:46 3,2 C 2,8 C 2,2 C 91 % 1008,7 hPa 0,0 l/m 0 min 0 min 0 W/m 19,3 km/h (3 Bft) 100,00 %
13.02.2020 07:48 3,2 C 2,8 C 2,2 C 91 % 1008,7 hPa 0,0 l/m 0 min 0 min 0 W/m 19,3 km/h (3 Bft) 100,00 %
13.02.2020 07:50 3,2 C 2,8 C 2,2 C 91 % 1008,7 hPa 0,0 l/m 0 min 0 min 0 W/m 35,4 km/h (5 Bft) 100,00 %
13.02.2020 07:52 3,2 C 2,8 C 2,2 C 91 % 1008,6 hPa 0,0 l/m 0 min 0 min 0 W/m 22,5 km/h (4 Bft) 97,87 %
13.02.2020 07:54 3,2 C 2,8 C 2,2 C 91 % 1008,5 hPa 0,0 l/m 0 min 0 min 0 W/m 29,0 km/h (5 Bft) 100,00 %
13.02.2020 07:56 3,2 C 2,8 C 2,2 C 91 % 1008,5 hPa 0,0 l/m 0 min 0 min 0 W/m 25,7 km/h (4 Bft) 100,00 %
13.02.2020 07:58 3,2 C 2,8 C 2,2 C 91 % 1008,5 hPa 0,0 l/m 0 min 0 min 0 W/m 29,0 km/h (5 Bft) 97,87 %
13.02.2020 08:00 3,3 C 2,8 C 2,2 C 91 % 1008,4 hPa 0,0 l/m 0 min 0 min 0 W/m 22,5 km/h (4 Bft) 100,00 %
13.02.2020 08:02 3,3 C 2,8 C 2,2 C 91 % 1008,3 hPa 0,0 l/m 0 min 0 min 0 W/m 38,6 km/h (5 Bft) 100,00 %
13.02.2020 08:04 3,3 C 2,8 C 2,2 C 91 % 1008,2 hPa 0,0 l/m 0 min 0 min 0 W/m 22,5 km/h (4 Bft) 100,00 %
13.02.2020 08:06 3,3 C 2,8 C 2,2 C 91 % 1008,1 hPa 0,0 l/m 0 min 0 min 0 W/m 38,6 km/h (5 Bft) 100,00 %
13.02.2020 08:08 3,3 C 2,8 C 2,2 C 91 % 1008,1 hPa 0,0 l/m 0 min 0 min 0 W/m 25,7 km/h (4 Bft) 100,00 %
13.02.2020 08:10 3,4 C 3,3 C 2,2 C 91 % 1008,0 hPa 0,0 l/m 0 min 0 min 0 W/m 25,7 km/h (4 Bft) 100,00 %
13.02.2020 08:12 3,4 C 3,3 C 2,2 C 91 % 1007,9 hPa 0,0 l/m 0 min 0 min 0 W/m 25,7 km/h (4 Bft) 100,00 %
13.02.2020 08:14 3,4 C 3,3 C 2,8 C 91 % 1007,8 hPa 0,0 l/m 0 min 0 min 0 W/m 22,5 km/h (4 Bft) 100,00 %
13.02.2020 08:16 3,5 C 3,3 C 2,2 C 91 % 1007,8 hPa 0,0 l/m 0 min 0 min 2 W/m 25,7 km/h (4 Bft) 100,00 %
13.02.2020 08:18 3,5 C 3,3 C 2,8 C 91 % 1007,7 hPa 0,0 l/m 0 min 0 min 5 W/m 32,2 km/h (5 Bft) 97,87 %
13.02.2020 08:20 3,6 C 3,3 C 2,8 C 91 % 1007,7 hPa 0,0 l/m 0 min 0 min 5 W/m 25,7 km/h (4 Bft) 97,83 %
13.02.2020 08:22 3,6 C 3,3 C 2,8 C 91 % 1007,7 hPa 0,0 l/m 0 min 0 min 5 W/m 29,0 km/h (5 Bft) 97,87 %
13.02.2020 08:24 3,6 C 3,3 C 2,8 C 91 % 1007,6 hPa 0,0 l/m 0 min 0 min 5 W/m 25,7 km/h (4 Bft) 97,87 %
13.02.2020 08:26 3,6 C 3,3 C 2,8 C 91 % 1007,4 hPa 0,0 l/m 0 min 0 min 5 W/m 25,7 km/h (4 Bft) 95,74 %
13.02.2020 08:28 3,7 C 3,3 C 2,8 C 91 % 1007,3 hPa 0,0 l/m 0 min 0 min 5 W/m 41,8 km/h (6 Bft) 97,87 %
13.02.2020 08:30 3,7 C 3,3 C 2,8 C 91 % 1007,4 hPa 0,0 l/m 0 min 0 min 5 W/m 25,7 km/h (4 Bft) 97,87 %
13.02.2020 08:32 3,7 C 3,3 C 2,8 C 91 % 1007,4 hPa 0,0 l/m 0 min 0 min 5 W/m 32,2 km/h (5 Bft) 95,65 %
13.02.2020 08:34 3,7 C 3,3 C 2,8 C 91 % 1007,4 hPa 0,0 l/m 0 min 0 min 5 W/m 25,7 km/h (4 Bft) 97,87 %
13.02.2020 08:36 3,7 C 3,3 C 2,8 C 91 % 1007,4 hPa 0,0 l/m 0 min 0 min 5 W/m 22,5 km/h (4 Bft) 97,87 %
13.02.2020 08:38 3,8 C 3,3 C 2,8 C 91 % 1007,3 hPa 0,0 l/m 0 min 0 min 5 W/m 29,0 km/h (5 Bft) 97,87 %
13.02.2020 08:40 3,8 C 3,3 C 2,8 C 91 % 1007,4 hPa 0,0 l/m 0 min 0 min 5 W/m 38,6 km/h (5 Bft) 97,87 %
13.02.2020 08:42 3,8 C 3,3 C 2,8 C 91 % 1007,5 hPa 0,0 l/m 0 min 0 min 5 W/m 29,0 km/h (5 Bft) 97,83 %
13.02.2020 08:44 3,8 C 3,3 C 2,8 C 90 % 1007,5 hPa 0,0 l/m 0 min 0 min 6 W/m 32,2 km/h (5 Bft) 95,74 %
13.02.2020 08:46 3,8 C 3,3 C 2,8 C 90 % 1007,5 hPa 0,0 l/m 0 min 0 min 7 W/m 41,8 km/h (6 Bft) 97,87 %
13.02.2020 08:48 3,8 C 3,3 C 2,8 C 90 % 1007,5 hPa 0,0 l/m 0 min 0 min 7 W/m 25,7 km/h (4 Bft) 97,87 %
13.02.2020 08:50 3,9 C 3,3 C 2,8 C 90 % 1007,5 hPa 0,0 l/m 0 min 2 min 7 W/m 29,0 km/h (5 Bft) 97,87 %
13.02.2020 08:52 3,9 C 2,8 C 2,8 C 90 % 1007,5 hPa 0,0 l/m 0 min 2 min 6 W/m 35,4 km/h (5 Bft) 95,74 %
13.02.2020 08:54 3,9 C 2,8 C 2,2 C 90 % 1007,5 hPa 0,0 l/m 0 min 2 min 5 W/m 29,0 km/h (5 Bft) 95,65 %
13.02.2020 08:56 3,9 C 2,8 C 2,2 C 90 % 1007,5 hPa 0,0 l/m 0 min 2 min 5 W/m 22,5 km/h (4 Bft) 95,74 %
13.02.2020 08:58 3,9 C 2,8 C 2,2 C 90 % 1007,4 hPa 0,0 l/m 0 min 2 min 1 W/m 29,0 km/h (5 Bft) 97,87 %
13.02.2020 09:00 3,9 C 2,8 C 2,2 C 90 % 1007,3 hPa 0,0 l/m 0 min 2 min 5 W/m 29,0 km/h (5 Bft) 95,74 %
13.02.2020 09:02 3,9 C 2,2 C 2,2 C 91 % 1007,2 hPa 0,2 l/m 0 min 2 min 5 W/m 25,7 km/h (4 Bft) 91,49 %
13.02.2020 09:04 3,9 C 2,2 C 1,7 C 91 % 1007,0 hPa 0,0 l/m 0 min 2 min 5 W/m 19,3 km/h (3 Bft) 100,00 %
13.02.2020 09:06 3,9 C 2,2 C 1,7 C 91 % 1006,8 hPa 0,0 l/m 0 min 2 min 0 W/m 25,7 km/h (4 Bft) 97,83 %
13.02.2020 09:08 3,9 C 2,2 C 1,7 C 91 % 1006,9 hPa 0,0 l/m 0 min 2 min 0 W/m 25,7 km/h (4 Bft) 95,74 %
13.02.2020 09:10 3,9 C 2,2 C 1,7 C 91 % 1007,0 hPa 0,0 l/m 0 min 2 min 0 W/m 25,7 km/h (4 Bft) 95,74 %
13.02.2020 09:12 3,9 C 2,2 C 1,7 C 91 % 1007,0 hPa 0,0 l/m 0 min 2 min 0 W/m 35,4 km/h (5 Bft) 95,74 %
13.02.2020 09:14 3,9 C 2,2 C 1,7 C 91 % 1006,8 hPa 0,0 l/m 0 min 2 min 2 W/m 25,7 km/h (4 Bft) 95,74 %
13.02.2020 09:16 3,9 C 2,2 C 1,7 C 92 % 1006,6 hPa 0,2 l/m 0 min 2 min 7 W/m 35,4 km/h (5 Bft) 95,65 %
13.02.2020 09:18 3,9 C 2,2 C 2,2 C 92 % 1006,7 hPa 0,0 l/m 0 min 2 min 10 W/m 25,7 km/h (4 Bft) 91,49 %
13.02.2020 09:20 3,9 C 2,2 C 2,2 C 92 % 1006,6 hPa 0,0 l/m 0 min 2 min 11 W/m 25,7 km/h (4 Bft) 95,74 %
13.02.2020 09:22 3,9 C 2,2 C 2,2 C 92 % 1006,3 hPa 0,0 l/m 0 min 2 min 8 W/m 25,7 km/h (4 Bft) 93,62 %
13.02.2020 09:24 3,9 C 2,2 C 2,2 C 92 % 1006,3 hPa 0,0 l/m 0 min 2 min 8 W/m 29,0 km/h (5 Bft) 95,74 %
13.02.2020 09:26 3,9 C 2,8 C 2,2 C 92 % 1006,4 hPa 0,0 l/m 0 min 2 min 9 W/m 25,7 km/h (4 Bft) 95,74 %
13.02.2020 09:28 3,9 C 2,8 C 2,2 C 92 % 1006,4 hPa 0,2 l/m 0 min 2 min 11 W/m 35,4 km/h (5 Bft) 95,74 %
13.02.2020 09:30 3,9 C 2,8 C 2,2 C 93 % 1006,3 hPa 0,0 l/m 0 min 2 min 12 W/m 25,7 km/h (4 Bft) 95,65 %
13.02.2020 09:32 3,9 C 2,8 C 2,2 C 93 % 1006,1 hPa 0,0 l/m 0 min 2 min 12 W/m 29,0 km/h (5 Bft) 93,62 %
13.02.2020 09:34 3,9 C 2,8 C 2,2 C 93 % 1006,1 hPa 0,0 l/m 0 min 2 min 14 W/m 22,5 km/h (4 Bft) 95,74 %
13.02.2020 09:36 3,9 C 2,8 C 2,2 C 93 % 1005,9 hPa 0,0 l/m 0 min 2 min 18 W/m 19,3 km/h (3 Bft) 95,74 %
13.02.2020 09:38 4,0 C 2,8 C 2,2 C 93 % 1005,8 hPa 0,0 l/m 0 min 2 min 20 W/m 25,7 km/h (4 Bft) 95,74 %
13.02.2020 09:40 4,0 C 2,8 C 2,2 C 93 % 1005,7 hPa 0,0 l/m 0 min 2 min 18 W/m 48,3 km/h (6 Bft) 93,62 %
13.02.2020 09:42 4,0 C 2,8 C 2,2 C 93 % 1005,5 hPa 0,2 l/m 0 min 0 min 21 W/m 48,3 km/h (6 Bft) 95,65 %
13.02.2020 09:44 4,0 C 2,8 C 2,2 C 93 % 1005,5 hPa 0,0 l/m 0 min 0 min 25 W/m 41,8 km/h (6 Bft) 93,62 %
13.02.2020 09:46 4,1 C 2,8 C 2,2 C 93 % 1005,3 hPa 0,0 l/m 0 min 0 min 23 W/m 22,5 km/h (4 Bft) 47,50 %
13.02.2020 09:48 4,0 C 2,8 C 2,2 C 93 % 1005,2 hPa 0,0 l/m 0 min 2 min 20 W/m 35,4 km/h (5 Bft) 95,74 %
13.02.2020 09:50 4,1 C 2,8 C 2,2 C 93 % 1005,1 hPa 0,0 l/m 0 min 0 min 22 W/m 38,6 km/h (5 Bft) 93,62 %
13.02.2020 09:52 4,1 C 2,8 C 2,2 C 93 % 1005,1 hPa 0,0 l/m 0 min 2 min 26 W/m 35,4 km/h (5 Bft) 97,83 %
13.02.2020 09:54 4,1 C 2,8 C 2,2 C 93 % 1004,9 hPa 0,0 l/m 0 min 0 min 28 W/m 38,6 km/h (5 Bft) 93,62 %
13.02.2020 09:56 4,1 C 2,8 C 2,2 C 93 % 1004,8 hPa 0,0 l/m 0 min 0 min 29 W/m 38,6 km/h (5 Bft) 97,87 %
13.02.2020 09:58 4,1 C 2,8 C 2,2 C 93 % 1004,5 hPa 0,0 l/m 0 min 2 min 35 W/m 45,1 km/h (6 Bft) 97,87 %
13.02.2020 10:00 4,1 C 2,8 C 2,2 C 93 % 1004,3 hPa 0,0 l/m 0 min 2 min 35 W/m 38,6 km/h (5 Bft) 97,87 %
13.02.2020 10:02 4,1 C 2,8 C 2,2 C 93 % 1004,2 hPa 0,0 l/m 0 min 0 min 27 W/m 45,1 km/h (6 Bft) 95,74 %
13.02.2020 10:04 4,2 C 2,8 C 2,2 C 93 % 1004,3 hPa 0,0 l/m 0 min 2 min 20 W/m 35,4 km/h (5 Bft) 97,83 %
13.02.2020 10:06 4,2 C 2,8 C 2,2 C 93 % 1004,3 hPa 0,0 l/m 0 min 0 min 26 W/m 38,6 km/h (5 Bft) 97,87 %
13.02.2020 10:08 4,2 C 2,8 C 2,2 C 93 % 1004,3 hPa 0,0 l/m 0 min 0 min 31 W/m 25,7 km/h (4 Bft) 100,00 %
13.02.2020 10:10 4,2 C 3,3 C 2,2 C 93 % 1004,2 hPa 0,0 l/m 0 min 2 min 36 W/m 29,0 km/h (5 Bft) 97,87 %
13.02.2020 10:12 4,2 C 3,3 C 2,8 C 92 % 1004,2 hPa 0,0 l/m 0 min 2 min 46 W/m 29,0 km/h (5 Bft) 100,00 %
13.02.2020 10:14 4,3 C 3,3 C 2,8 C 93 % 1004,2 hPa 0,0 l/m 0 min 2 min 44 W/m 38,6 km/h (5 Bft) 97,87 %
13.02.2020 10:16 4,3 C 3,3 C 2,8 C 93 % 1004,1 hPa 0,0 l/m 0 min 2 min 30 W/m 48,3 km/h (6 Bft) 100,00 %
13.02.2020 10:18 4,3 C 3,3 C 2,8 C 92 % 1004,1 hPa 0,0 l/m 0 min 2 min 20 W/m 38,6 km/h (5 Bft) 100,00 %
13.02.2020 10:20 4,3 C 3,3 C 2,8 C 92 % 1004,0 hPa 0,0 l/m 0 min 2 min 24 W/m 41,8 km/h (6 Bft) 97,87 %
13.02.2020 10:22 4,4 C 3,3 C 2,2 C 92 % 1004,2 hPa 0,0 l/m 0 min 2 min 26 W/m 41,8 km/h (6 Bft) 97,87 %
13.02.2020 10:24 4,4 C 2,8 C 2,2 C 92 % 1004,1 hPa 0,0 l/m 0 min 2 min 24 W/m 45,1 km/h (6 Bft) 100,00 %
13.02.2020 10:26 4,4 C 2,8 C 2,2 C 92 % 1004,2 hPa 0,2 l/m 0 min 2 min 23 W/m 45,1 km/h (6 Bft) 100,00 %
13.02.2020 10:28 4,4 C 2,8 C 2,2 C 92 % 1003,9 hPa 0,0 l/m 0 min 2 min 26 W/m 35,4 km/h (5 Bft) 100,00 %
13.02.2020 10:30 4,5 C 2,8 C 2,2 C 92 % 1003,8 hPa 0,0 l/m 0 min 2 min 29 W/m 38,6 km/h (5 Bft) 100,00 %
13.02.2020 10:32 4,5 C 2,8 C 2,2 C 92 % 1003,7 hPa 0,2 l/m 0 min 2 min 27 W/m 41,8 km/h (6 Bft) 100,00 %
13.02.2020 10:34 4,5 C 2,8 C 2,2 C 92 % 1003,4 hPa 0,0 l/m 0 min 2 min 25 W/m 35,4 km/h (5 Bft) 100,00 %
13.02.2020 10:36 4,5 C 2,8 C 2,2 C 92 % 1003,3 hPa 0,2 l/m 0 min 2 min 20 W/m 25,7 km/h (4 Bft) 100,00 %
13.02.2020 10:38 4,5 C 2,8 C 2,2 C 92 % 1003,2 hPa 0,0 l/m 0 min 2 min 14 W/m 51,5 km/h (7 Bft) 100,00 %
13.02.2020 10:40 4,5 C 2,8 C 2,2 C 92 % 1003,1 hPa 0,0 l/m 0 min 2 min 15 W/m 41,8 km/h (6 Bft) 100,00 %
13.02.2020 10:42 4,5 C 2,8 C 2,2 C 92 % 1003,1 hPa 0,0 l/m 0 min 0 min 13 W/m 25,7 km/h (4 Bft) 100,00 %
13.02.2020 10:44 4,5 C 2,8 C 2,2 C 92 % 1003,0 hPa 0,0 l/m 0 min 2 min 11 W/m 38,6 km/h (5 Bft) 100,00 %
13.02.2020 10:46 4,5 C 2,8 C 2,2 C 92 % 1002,9 hPa 0,0 l/m 0 min 2 min 10 W/m 29,0 km/h (5 Bft) 97,87 %
13.02.2020 10:48 4,5 C 2,8 C 2,2 C 92 % 1002,8 hPa 0,0 l/m 0 min 2 min 9 W/m 19,3 km/h (3 Bft) 51,22 %
13.02.2020 10:50 4,5 C 2,8 C 2,2 C 92 % 1002,7 hPa 0,0 l/m 0 min 2 min 9 W/m 45,1 km/h (6 Bft) 100,00 %
13.02.2020 10:52 4,5 C 2,8 C 2,2 C 92 % 1002,6 hPa 0,2 l/m 0 min 2 min 10 W/m 38,6 km/h (5 Bft) 100,00 %
13.02.2020 10:54 4,5 C 2,8 C 2,2 C 92 % 1002,5 hPa 0,0 l/m 0 min 2 min 13 W/m 38,6 km/h (5 Bft) 97,87 %
13.02.2020 10:56 4,5 C 2,8 C 2,2 C 92 % 1002,5 hPa 0,2 l/m 0 min 2 min 17 W/m 32,2 km/h (5 Bft) 100,00 %
13.02.2020 10:58 4,5 C 2,8 C 2,2 C 92 % 1002,3 hPa 0,0 l/m 0 min 2 min 23 W/m 41,8 km/h (6 Bft) 97,87 %
13.02.2020 11:00 4,5 C 2,8 C 2,2 C 92 % 1002,2 hPa 0,0 l/m 0 min 2 min 32 W/m 29,0 km/h (5 Bft) 97,87 %
13.02.2020 11:02 4,5 C 2,8 C 2,2 C 92 % 1002,1 hPa 0,0 l/m 0 min 2 min 32 W/m 38,6 km/h (5 Bft) 95,65 %
13.02.2020 11:04 4,5 C 2,8 C 2,2 C 92 % 1001,9 hPa 0,2 l/m 0 min 2 min 25 W/m 35,4 km/h (5 Bft) 97,87 %
13.02.2020 11:06 4,4 C 2,8 C 2,2 C 93 % 1001,7 hPa 0,0 l/m 0 min 2 min 25 W/m 38,6 km/h (5 Bft) 95,74 %
13.02.2020 11:08 4,4 C 2,8 C 2,8 C 93 % 1001,5 hPa 0,2 l/m 0 min 2 min 42 W/m 29,0 km/h (5 Bft) 97,87 %
13.02.2020 11:10 4,4 C 2,8 C 2,8 C 93 % 1001,6 hPa 0,0 l/m 0 min 2 min 38 W/m 41,8 km/h (6 Bft) 97,87 %
13.02.2020 11:12 4,4 C 2,8 C 2,8 C 93 % 1001,5 hPa 0,0 l/m 0 min 2 min 25 W/m 35,4 km/h (5 Bft) 97,87 %
13.02.2020 11:14 4,4 C 2,8 C 2,8 C 93 % 1001,3 hPa 0,0 l/m 0 min 2 min 31 W/m 38,6 km/h (5 Bft) 97,83 %
13.02.2020 11:16 4,4 C 2,8 C 2,8 C 93 % 1001,0 hPa 0,0 l/m 0 min 2 min 29 W/m 35,4 km/h (5 Bft) 97,87 %
13.02.2020 11:18 4,4 C 2,8 C 2,8 C 93 % 1001,0 hPa 0,2 l/m 0 min 2 min 29 W/m 38,6 km/h (5 Bft) 97,87 %
13.02.2020 11:20 4,4 C 2,8 C 2,8 C 93 % 1001,0 hPa 0,0 l/m 0 min 2 min 39 W/m 48,3 km/h (6 Bft) 93,62 %
13.02.2020 11:22 4,4 C 2,8 C 2,8 C 93 % 1000,9 hPa 0,2 l/m 0 min 2 min 41 W/m 57,9 km/h (7 Bft) 95,74 %
13.02.2020 11:24 4,4 C 2,8 C 2,8 C 93 % 1001,0 hPa 0,0 l/m 0 min 2 min 34 W/m 57,9 km/h (7 Bft) 97,87 %
13.02.2020 11:26 4,4 C 2,8 C 2,8 C 93 % 1001,0 hPa 0,0 l/m 0 min 2 min 19 W/m 38,6 km/h (5 Bft) 97,83 %
13.02.2020 11:28 4,4 C 2,8 C 2,8 C 93 % 1000,9 hPa 0,0 l/m 0 min 2 min 19 W/m 41,8 km/h (6 Bft) 97,87 %
13.02.2020 11:30 4,4 C 2,8 C 2,2 C 93 % 1001,0 hPa 0,2 l/m 0 min 2 min 15 W/m 45,1 km/h (6 Bft) 95,74 %
13.02.2020 11:32 4,4 C 2,8 C 2,2 C 93 % 1000,9 hPa 0,2 l/m 0 min 2 min 19 W/m 41,8 km/h (6 Bft) 97,87 %
13.02.2020 11:34 4,4 C 2,8 C 2,8 C 93 % 1001,1 hPa 0,0 l/m 0 min 2 min 29 W/m 74,0 km/h (8 Bft) 97,87 %
13.02.2020 11:36 4,5 C 2,8 C 2,8 C 93 % 1001,1 hPa 0,0 l/m 0 min 2 min 32 W/m 25,7 km/h (4 Bft) 93,48 %
13.02.2020 11:38 4,4 C 2,8 C 2,8 C 93 % 1001,0 hPa 0,2 l/m 0 min 2 min 35 W/m 29,0 km/h (5 Bft) 91,49 %
13.02.2020 11:40 4,5 C 2,8 C 2,8 C 93 % 1001,2 hPa 0,0 l/m 0 min 2 min 35 W/m 51,5 km/h (7 Bft) 95,74 %
13.02.2020 11:42 4,4 C 2,8 C 2,8 C 93 % 1001,3 hPa 0,2 l/m 0 min 2 min 29 W/m 29,0 km/h (5 Bft) 95,74 %
13.02.2020 11:44 4,4 C 2,8 C 2,2 C 93 % 1001,3 hPa 0,0 l/m 0 min 2 min 24 W/m 61,2 km/h (7 Bft) 95,74 %
13.02.2020 11:46 4,4 C 2,8 C 2,2 C 93 % 1001,4 hPa 0,2 l/m 0 min 2 min 19 W/m 57,9 km/h (7 Bft) 95,74 %
13.02.2020 11:48 4,4 C 2,8 C 2,2 C 93 % 1001,4 hPa 0,2 l/m 0 min 2 min 22 W/m 29,0 km/h (5 Bft) 95,65 %
13.02.2020 11:50 4,4 C 2,8 C 2,2 C 93 % 1001,3 hPa 0,0 l/m 0 min 2 min 33 W/m 35,4 km/h (5 Bft) 95,74 %
13.02.2020 11:52 4,4 C 2,8 C 2,8 C 93 % 1001,3 hPa 0,0 l/m 0 min 2 min 33 W/m 25,7 km/h (4 Bft) 95,74 %
13.02.2020 11:54 4,4 C 2,8 C 2,8 C 93 % 1001,4 hPa 0,2 l/m 0 min 2 min 27 W/m 25,7 km/h (4 Bft) 97,87 %
13.02.2020 11:56 4,4 C 2,8 C 2,2 C 93 % 1001,4 hPa 0,0 l/m 0 min 2 min 24 W/m 25,7 km/h (4 Bft) 97,87 %
13.02.2020 11:58 4,4 C 2,8 C 2,8 C 93 % 1001,3 hPa 0,2 l/m 0 min 2 min 28 W/m 22,5 km/h (4 Bft) 97,87 %
13.02.2020 12:00 4,4 C 2,8 C 2,8 C 93 % 1001,4 hPa 0,0 l/m 0 min 2 min 31 W/m 25,7 km/h (4 Bft) 95,65 %
13.02.2020 12:02 4,4 C 2,8 C 2,8 C 93 % 1001,4 hPa 0,2 l/m 0 min 2 min 33 W/m 29,0 km/h (5 Bft) 97,87 %
13.02.2020 12:04 4,3 C 2,8 C 2,8 C 93 % 1001,4 hPa 0,0 l/m 0 min 2 min 37 W/m 25,7 km/h (4 Bft) 97,87 %
13.02.2020 12:06 4,3 C 2,8 C 2,8 C 93 % 1001,3 hPa 0,2 l/m 0 min 2 min 41 W/m 29,0 km/h (5 Bft) 97,87 %
13.02.2020 12:08 4,3 C 2,8 C 2,8 C 93 % 1001,3 hPa 0,0 l/m 0 min 2 min 36 W/m 25,7 km/h (4 Bft) 95,74 %
13.02.2020 12:10 4,3 C 2,8 C 2,8 C 93 % 1001,3 hPa 0,0 l/m 0 min 2 min 37 W/m 29,0 km/h (5 Bft) 97,87 %
13.02.2020 12:12 4,3 C 2,8 C 2,8 C 93 % 1001,3 hPa 0,2 l/m 0 min 2 min 37 W/m 16,1 km/h (3 Bft) 97,83 %
13.02.2020 12:14 4,3 C 2,8 C 2,8 C 94 % 1001,3 hPa 0,0 l/m 0 min 2 min 39 W/m 19,3 km/h (3 Bft) 97,87 %
13.02.2020 12:16 4,3 C 3,3 C 2,8 C 94 % 1001,3 hPa 0,2 l/m 0 min 2 min 40 W/m 19,3 km/h (3 Bft) 97,87 %
13.02.2020 12:18 4,3 C 3,3 C 2,8 C 94 % 1001,3 hPa 0,0 l/m 0 min 2 min 40 W/m 22,5 km/h (4 Bft) 97,87 %
13.02.2020 12:20 4,3 C 3,3 C 2,8 C 94 % 1001,3 hPa 0,0 l/m 0 min 2 min 34 W/m 19,3 km/h (3 Bft) 97,87 %
13.02.2020 12:22 4,3 C 2,8 C 2,8 C 94 % 1001,2 hPa 0,0 l/m 0 min 2 min 35 W/m 25,7 km/h (4 Bft) 100,00 %
13.02.2020 12:24 4,3 C 3,3 C 2,8 C 94 % 1001,1 hPa 0,2 l/m 0 min 2 min 33 W/m 19,3 km/h (3 Bft) 100,00 %
13.02.2020 12:26 4,3 C 3,3 C 2,8 C 94 % 1001,1 hPa 0,2 l/m 0 min 2 min 33 W/m 16,1 km/h (3 Bft) 100,00 %
13.02.2020 12:28 4,3 C 3,3 C 2,8 C 94 % 1001,1 hPa 0,0 l/m 0 min 2 min 25 W/m 16,1 km/h (3 Bft) 100,00 %
13.02.2020 12:30 4,3 C 3,3 C 2,8 C 94 % 1000,9 hPa 0,0 l/m 0 min 2 min 23 W/m 22,5 km/h (4 Bft) 100,00 %
13.02.2020 12:32 4,3 C 3,3 C 2,8 C 94 % 1000,9 hPa 0,0 l/m 0 min 2 min 21 W/m 25,7 km/h (4 Bft) 100,00 %
13.02.2020 12:34 4,3 C 3,3 C 2,8 C 94 % 1000,9 hPa 0,2 l/m 0 min 2 min 19 W/m 19,3 km/h (3 Bft) 100,00 %
13.02.2020 12:36 4,3 C 3,3 C 2,8 C 94 % 1000,9 hPa 0,0 l/m 0 min 2 min 14 W/m 19,3 km/h (3 Bft) 100,00 %
13.02.2020 12:38 4,3 C 3,3 C 2,8 C 94 % 1000,8 hPa 0,2 l/m 0 min 2 min 14 W/m 16,1 km/h (3 Bft) 100,00 %
13.02.2020 12:40 4,3 C 3,3 C 2,8 C 94 % 1000,8 hPa 0,0 l/m 0 min 2 min 14 W/m 38,6 km/h (5 Bft) 100,00 %
13.02.2020 12:42 4,3 C 3,3 C 2,8 C 95 % 1000,7 hPa 0,2 l/m 0 min 2 min 12 W/m 22,5 km/h (4 Bft) 100,00 %
13.02.2020 12:44 4,4 C 3,3 C 2,8 C 95 % 1000,6 hPa 0,2 l/m 0 min 2 min 13 W/m 35,4 km/h (5 Bft) 100,00 %
13.02.2020 12:46 4,4 C 3,3 C 2,8 C 95 % 1000,5 hPa 0,0 l/m 0 min 2 min 16 W/m 25,7 km/h (4 Bft) 97,83 %
13.02.2020 12:48 4,4 C 3,3 C 2,8 C 95 % 1000,4 hPa 0,2 l/m 0 min 2 min 21 W/m 32,2 km/h (5 Bft) 97,87 %
13.02.2020 12:50 4,5 C 3,3 C 3,3 C 95 % 1000,3 hPa 0,0 l/m 0 min 2 min 25 W/m 38,6 km/h (5 Bft) 97,87 %
13.02.2020 12:52 4,6 C 3,9 C 3,3 C 95 % 1000,3 hPa 0,2 l/m 0 min 2 min 23 W/m 41,8 km/h (6 Bft) 97,87 %
13.02.2020 12:54 4,7 C 3,9 C 3,3 C 95 % 1000,4 hPa 0,0 l/m 0 min 2 min 20 W/m 29,0 km/h (5 Bft) 97,87 %
13.02.2020 12:56 4,7 C 3,9 C 3,3 C 96 % 1000,3 hPa 0,0 l/m 0 min 2 min 19 W/m 22,5 km/h (4 Bft) 97,87 %
13.02.2020 12:58 4,8 C 3,9 C 3,3 C 96 % 1000,1 hPa 0,0 l/m 0 min 0 min 26 W/m 25,7 km/h (4 Bft) 97,83 %
13.02.2020 13:00 4,8 C 3,9 C 3,3 C 96 % 1000,0 hPa 0,0 l/m 0 min 0 min 34 W/m 22,5 km/h (4 Bft) 97,87 %
13.02.2020 13:02 4,8 C 3,9 C 3,3 C 96 % 999,9 hPa 0,0 l/m 0 min 2 min 40 W/m 25,7 km/h (4 Bft) 97,87 %
13.02.2020 13:04 4,9 C 3,9 C 3,3 C 96 % 999,8 hPa 0,0 l/m 0 min 2 min 46 W/m 25,7 km/h (4 Bft) 97,87 %
13.02.2020 13:06 4,9 C 3,9 C 3,3 C 96 % 999,8 hPa 0,0 l/m 0 min 2 min 47 W/m 29,0 km/h (5 Bft) 97,87 %
13.02.2020 13:08 5,0 C 3,9 C 3,3 C 96 % 999,7 hPa 0,0 l/m 0 min 2 min 64 W/m 29,0 km/h (5 Bft) 95,74 %
13.02.2020 13:10 5,0 C 3,9 C 3,3 C 96 % 999,5 hPa 0,0 l/m 0 min 2 min 81 W/m 41,8 km/h (6 Bft) 97,83 %
13.02.2020 13:12 5,1 C 3,9 C 3,3 C 96 % 999,4 hPa 0,0 l/m 0 min 2 min 83 W/m 41,8 km/h (6 Bft) 93,62 %
13.02.2020 13:14 5,1 C 3,9 C 3,3 C 96 % 999,2 hPa 0,0 l/m 0 min 2 min 84 W/m 41,8 km/h (6 Bft) 97,87 %
13.02.2020 13:16 5,1 C 3,9 C 3,3 C 96 % 999,2 hPa 0,0 l/m 0 min 2 min 75 W/m 45,1 km/h (6 Bft) 97,87 %
13.02.2020 13:18 5,1 C 3,9 C 3,3 C 96 % 999,0 hPa 0,0 l/m 0 min 2 min 77 W/m 35,4 km/h (5 Bft) 95,74 %
13.02.2020 13:20 5,1 C 4,4 C 3,3 C 96 % 999,1 hPa 0,0 l/m 0 min 2 min 80 W/m 41,8 km/h (6 Bft) 97,83 %
13.02.2020 13:22 5,1 C 4,4 C 3,9 C 96 % 999,1 hPa 0,0 l/m 0 min 2 min 88 W/m 35,4 km/h (5 Bft) 97,87 %
13.02.2020 13:24 5,1 C 4,4 C 3,9 C 96 % 999,0 hPa 0,0 l/m 0 min 2 min 89 W/m 32,2 km/h (5 Bft) 97,87 %
13.02.2020 13:26 5,1 C 4,4 C 3,9 C 96 % 998,8 hPa 0,0 l/m 0 min 0 min 132 W/m 35,4 km/h (5 Bft) 97,87 %
13.02.2020 13:28 5,2 C 4,4 C 3,9 C 96 % 999,0 hPa 0,0 l/m 0 min 0 min 166 W/m 22,5 km/h (4 Bft) 97,87 %
13.02.2020 13:30 5,2 C 4,4 C 3,9 C 96 % 999,2 hPa 0,0 l/m 0 min 0 min 109 W/m 35,4 km/h (5 Bft) 97,87 %
13.02.2020 13:32 5,2 C 4,4 C 3,9 C 96 % 999,2 hPa 0,0 l/m 0 min 2 min 72 W/m 25,7 km/h (4 Bft) 97,83 %
13.02.2020 13:34 5,2 C 4,4 C 3,9 C 95 % 999,1 hPa 0,0 l/m 0 min 2 min 87 W/m 29,0 km/h (5 Bft) 97,87 %
13.02.2020 13:36 5,3 C 4,4 C 3,9 C 95 % 999,0 hPa 0,0 l/m 0 min 0 min 103 W/m 35,4 km/h (5 Bft) 97,87 %
13.02.2020 13:38 5,3 C 5,0 C 3,9 C 95 % 999,0 hPa 0,0 l/m 0 min 0 min 134 W/m 38,6 km/h (5 Bft) 97,87 %
13.02.2020 13:40 5,3 C 5,0 C 4,4 C 95 % 999,0 hPa 0,0 l/m 2 min 0 min 232 W/m 29,0 km/h (5 Bft) 97,87 %
13.02.2020 13:42 5,4 C 5,6 C 5,0 C 95 % 999,0 hPa 0,0 l/m 2 min 0 min 268 W/m 22,5 km/h (4 Bft) 97,87 %
13.02.2020 13:44 5,5 C 5,6 C 5,0 C 95 % 999,0 hPa 0,0 l/m 2 min 0 min 221 W/m 19,3 km/h (3 Bft) 97,83 %
13.02.2020 13:46 5,6 C 5,6 C 5,0 C 95 % 998,9 hPa 0,0 l/m 0 min 0 min 194 W/m 29,0 km/h (5 Bft) 97,87 %
13.02.2020 13:48 5,6 C 5,6 C 5,0 C 95 % 999,0 hPa 0,0 l/m 0 min 0 min 177 W/m 29,0 km/h (5 Bft) 95,74 %
13.02.2020 13:50 5,7 C 5,6 C 5,0 C 95 % 999,0 hPa 0,0 l/m 0 min 0 min 182 W/m 22,5 km/h (4 Bft) 97,87 %
13.02.2020 13:52 5,8 C 5,6 C 5,0 C 95 % 998,9 hPa 0,0 l/m 0 min 0 min 178 W/m 25,7 km/h (4 Bft) 97,87 %
13.02.2020 13:54 5,8 C 5,6 C 5,0 C 95 % 998,8 hPa 0,0 l/m 0 min 0 min 146 W/m 25,7 km/h (4 Bft) 95,74 %
13.02.2020 13:56 5,8 C 5,6 C 5,0 C 95 % 998,8 hPa 0,0 l/m 0 min 0 min 161 W/m 29,0 km/h (5 Bft) 93,48 %
13.02.2020 13:58 5,9 C 5,6 C 5,0 C 95 % 998,9 hPa 0,0 l/m 0 min 0 min 153 W/m 32,2 km/h (5 Bft) 95,74 %
13.02.2020 14:00 5,9 C 5,6 C 5,0 C 95 % 998,8 hPa 0,0 l/m 0 min 0 min 146 W/m 22,5 km/h (4 Bft) 97,87 %
13.02.2020 14:02 5,9 C 6,7 C 5,0 C 95 % 998,8 hPa 0,0 l/m 2 min 0 min 270 W/m 19,3 km/h (3 Bft) 97,87 %
13.02.2020 14:04 6,0 C 6,7 C 5,0 C 95 % 998,8 hPa 0,0 l/m 2 min 0 min 272 W/m 22,5 km/h (4 Bft) 95,74 %
13.02.2020 14:06 6,1 C 7,8 C 5,6 C 95 % 998,9 hPa 0,0 l/m 0 min 0 min 181 W/m 25,7 km/h (4 Bft) 68,09 %
13.02.2020 14:08 6,2 C 7,8 C 5,6 C 95 % 998,8 hPa 0,0 l/m 0 min 0 min 181 W/m 16,1 km/h (3 Bft) 77,14 %
13.02.2020 14:10 6,3 C 6,7 C 5,6 C 95 % 999,0 hPa 0,0 l/m 0 min 0 min 172 W/m 25,7 km/h (4 Bft) 95,74 %
13.02.2020 14:12 6,3 C 6,7 C 5,6 C 95 % 999,0 hPa 0,0 l/m 0 min 0 min 163 W/m 19,3 km/h (3 Bft) 95,74 %
13.02.2020 14:14 6,4 C 6,1 C 5,0 C 95 % 998,9 hPa 0,0 l/m 0 min 0 min 160 W/m 29,0 km/h (5 Bft) 93,62 %
13.02.2020 14:16 6,4 C 6,1 C 5,0 C 94 % 999,0 hPa 0,0 l/m 2 min 0 min 201 W/m 22,5 km/h (4 Bft) 95,74 %
13.02.2020 14:18 6,4 C 6,7 C 5,6 C 94 % 999,0 hPa 0,0 l/m 2 min 0 min 251 W/m 22,5 km/h (4 Bft) 95,74 %
13.02.2020 14:20 6,5 C 6,7 C 5,6 C 94 % 999,0 hPa 0,0 l/m 2 min 0 min 216 W/m 22,5 km/h (4 Bft) 95,65 %
13.02.2020 14:22 6,5 C 6,7 C 5,6 C 94 % 999,0 hPa 0,0 l/m 0 min 0 min 176 W/m 22,5 km/h (4 Bft) 91,49 %
13.02.2020 14:24 6,5 C 6,7 C 5,6 C 94 % 999,1 hPa 0,0 l/m 0 min 0 min 188 W/m 19,3 km/h (3 Bft) 95,74 %
13.02.2020 14:26 6,6 C 6,7 C 5,6 C 93 % 999,1 hPa 0,0 l/m 2 min 0 min 201 W/m 29,0 km/h (5 Bft) 95,74 %
13.02.2020 14:28 6,6 C 7,8 C 6,1 C 93 % 999,0 hPa 0,0 l/m 2 min 0 min 246 W/m 29,0 km/h (5 Bft) 97,87 %
13.02.2020 14:30 6,7 C 7,8 C 6,7 C 93 % 999,0 hPa 0,0 l/m 2 min 0 min 240 W/m 19,3 km/h (3 Bft) 97,87 %
13.02.2020 14:32 6,8 C 7,2 C 6,7 C 93 % 998,9 hPa 0,0 l/m 2 min 0 min 233 W/m 29,0 km/h (5 Bft) 95,65 %
13.02.2020 14:34 6,8 C 6,7 C 6,1 C 93 % 998,9 hPa 0,0 l/m 0 min 0 min 146 W/m 25,7 km/h (4 Bft) 97,87 %
13.02.2020 14:36 6,8 C 6,7 C 6,1 C 92 % 998,9 hPa 0,0 l/m 0 min 0 min 126 W/m 22,5 km/h (4 Bft) 97,87 %
13.02.2020 14:38 6,8 C 6,1 C 5,6 C 92 % 998,9 hPa 0,0 l/m 0 min 0 min 89 W/m 22,5 km/h (4 Bft) 97,87 %
13.02.2020 14:40 6,9 C 6,1 C 5,6 C 92 % 998,8 hPa 0,0 l/m 0 min 0 min 83 W/m 22,5 km/h (4 Bft) 97,87 %
13.02.2020 14:42 6,9 C 6,1 C 5,6 C 91 % 998,8 hPa 0,0 l/m 0 min 0 min 65 W/m 19,3 km/h (3 Bft) 97,83 %
13.02.2020 14:44 6,8 C 6,1 C 5,6 C 91 % 998,8 hPa 0,0 l/m 0 min 0 min 67 W/m 22,5 km/h (4 Bft) 97,87 %
13.02.2020 14:46 6,8 C 5,6 C 5,0 C 91 % 998,8 hPa 0,0 l/m 0 min 0 min 77 W/m 19,3 km/h (3 Bft) 97,87 %
13.02.2020 14:48 6,8 C 6,1 C 5,0 C 91 % 998,8 hPa 0,0 l/m 0 min 0 min 67 W/m 19,3 km/h (3 Bft) 97,87 %
13.02.2020 14:50 6,7 C 5,6 C 5,0 C 91 % 998,8 hPa 0,0 l/m 0 min 0 min 64 W/m 22,5 km/h (4 Bft) 97,87 %
13.02.2020 14:52 6,7 C 6,1 C 5,0 C 91 % 998,7 hPa 0,0 l/m 0 min 0 min 61 W/m 22,5 km/h (4 Bft) 97,87 %
13.02.2020 14:54 6,7 C 6,1 C 5,0 C 90 % 998,7 hPa 0,0 l/m 0 min 0 min 58 W/m 16,1 km/h (3 Bft) 100,00 %
13.02.2020 14:56 6,7 C 6,1 C 5,0 C 90 % 998,7 hPa 0,0 l/m 0 min 0 min 61 W/m 19,3 km/h (3 Bft) 100,00 %
13.02.2020 14:58 6,6 C 6,1 C 5,0 C 90 % 998,6 hPa 0,0 l/m 0 min 0 min 67 W/m 19,3 km/h (3 Bft) 100,00 %
13.02.2020 15:00 6,6 C 6,1 C 5,0 C 90 % 998,7 hPa 0,0 l/m 0 min 0 min 96 W/m 12,9 km/h (3 Bft) 100,00 %
13.02.2020 15:02 6,6 C 6,7 C 5,6 C 90 % 998,5 hPa 0,0 l/m 0 min 0 min 137 W/m 16,1 km/h (3 Bft) 100,00 %
13.02.2020 15:04 6,6 C 6,7 C 5,6 C 90 % 998,5 hPa 0,0 l/m 0 min 0 min 131 W/m 19,3 km/h (3 Bft) 100,00 %
13.02.2020 15:06 6,7 C 7,2 C 5,6 C 90 % 998,5 hPa 0,0 l/m 0 min 0 min 145 W/m 19,3 km/h (3 Bft) 100,00 %
13.02.2020 15:08 6,7 C 8,3 C 6,1 C 91 % 998,3 hPa 0,0 l/m 2 min 0 min 181 W/m 16,1 km/h (3 Bft) 100,00 %
13.02.2020 15:10 6,7 C 8,3 C 6,1 C 91 % 998,3 hPa 0,0 l/m 2 min 0 min 162 W/m 16,1 km/h (3 Bft) 100,00 %
13.02.2020 15:12 6,8 C 8,3 C 6,1 C 91 % 998,2 hPa 0,0 l/m 2 min 0 min 178 W/m 19,3 km/h (3 Bft) 97,87 %
13.02.2020 15:14 6,8 C 8,3 C 6,7 C 91 % 998,2 hPa 0,0 l/m 2 min 0 min 157 W/m 16,1 km/h (3 Bft) 100,00 %
13.02.2020 15:16 6,9 C 7,8 C 6,7 C 91 % 998,2 hPa 0,0 l/m 0 min 0 min 149 W/m 16,1 km/h (3 Bft) 100,00 %
13.02.2020 15:18 7,0 C 7,8 C 6,7 C 91 % 998,2 hPa 0,0 l/m 0 min 0 min 132 W/m 25,7 km/h (4 Bft) 100,00 %
13.02.2020 15:20 7,1 C 7,8 C 6,7 C 91 % 998,2 hPa 0,0 l/m 0 min 0 min 108 W/m 16,1 km/h (3 Bft) 100,00 %
13.02.2020 15:22 7,1 C 7,8 C 6,7 C 91 % 998,2 hPa 0,0 l/m 0 min 0 min 114 W/m 6,4 km/h (2 Bft) 100,00 %
13.02.2020 15:24 7,2 C 7,8 C 6,7 C 91 % 998,2 hPa 0,0 l/m 0 min 0 min 110 W/m 12,9 km/h (3 Bft) 97,87 %
13.02.2020 15:26 7,3 C 7,8 C 6,7 C 91 % 998,1 hPa 0,0 l/m 0 min 0 min 83 W/m 16,1 km/h (3 Bft) 100,00 %
13.02.2020 15:28 7,3 C 7,8 C 6,7 C 91 % 998,2 hPa 0,0 l/m 0 min 0 min 60 W/m 16,1 km/h (3 Bft) 100,00 %
13.02.2020 15:30 7,3 C 7,8 C 6,7 C 91 % 998,1 hPa 0,0 l/m 0 min 0 min 66 W/m 12,9 km/h (3 Bft) 100,00 %
13.02.2020 15:32 7,4 C 7,8 C 6,1 C 90 % 998,1 hPa 0,0 l/m 0 min 0 min 51 W/m 16,1 km/h (3 Bft) 100,00 %
13.02.2020 15:34 7,4 C 7,8 C 6,1 C 90 % 998,1 hPa 0,0 l/m 0 min 0 min 40 W/m 6,4 km/h (2 Bft) 97,87 %
13.02.2020 15:36 7,5 C 7,8 C 6,1 C 90 % 998,0 hPa 0,0 l/m 0 min 0 min 44 W/m 19,3 km/h (3 Bft) 100,00 %
13.02.2020 15:38 7,5 C 7,8 C 6,1 C 90 % 998,1 hPa 0,0 l/m 0 min 0 min 42 W/m 19,3 km/h (3 Bft) 97,87 %
13.02.2020 15:40 7,6 C 7,8 C 6,1 C 89 % 998,0 hPa 0,0 l/m 0 min 0 min 32 W/m 16,1 km/h (3 Bft) 100,00 %
13.02.2020 15:42 7,6 C 7,2 C 6,1 C 89 % 998,0 hPa 0,0 l/m 0 min 0 min 27 W/m 19,3 km/h (3 Bft) 100,00 %
13.02.2020 15:44 7,6 C 7,2 C 6,1 C 89 % 998,0 hPa 0,0 l/m 0 min 0 min 31 W/m 19,3 km/h (3 Bft) 100,00 %
13.02.2020 15:46 7,6 C 7,2 C 6,1 C 89 % 998,0 hPa 0,0 l/m 0 min 0 min 31 W/m 19,3 km/h (3 Bft) 100,00 %
13.02.2020 15:48 7,7 C 7,2 C 6,1 C 88 % 998,0 hPa 0,0 l/m 0 min 0 min 27 W/m 16,1 km/h (3 Bft) 97,87 %
13.02.2020 15:50 7,7 C 7,2 C 6,1 C 88 % 998,0 hPa 0,0 l/m 0 min 0 min 27 W/m 22,5 km/h (4 Bft) 97,87 %
13.02.2020 15:52 7,7 C 7,8 C 6,1 C 88 % 998,1 hPa 0,0 l/m 0 min 0 min 35 W/m 16,1 km/h (3 Bft) 97,83 %
13.02.2020 15:54 7,7 C 7,8 C 6,1 C 88 % 998,0 hPa 0,0 l/m 0 min 0 min 37 W/m 25,7 km/h (4 Bft) 97,87 %
13.02.2020 15:56 7,8 C 7,8 C 6,1 C 88 % 998,0 hPa 0,0 l/m 0 min 0 min 49 W/m 22,5 km/h (4 Bft) 95,74 %
13.02.2020 15:58 7,8 C 7,8 C 6,7 C 87 % 998,0 hPa 0,0 l/m 0 min 0 min 50 W/m 22,5 km/h (4 Bft) 97,87 %
13.02.2020 16:00 7,8 C 7,8 C 6,1 C 87 % 997,9 hPa 0,0 l/m 0 min 0 min 36 W/m 25,7 km/h (4 Bft) 97,87 %
13.02.2020 16:02 7,8 C 7,8 C 6,1 C 87 % 997,9 hPa 0,0 l/m 0 min 0 min 53 W/m 32,2 km/h (5 Bft) 97,87 %
13.02.2020 16:04 7,8 C 7,8 C 6,7 C 87 % 997,8 hPa 0,0 l/m 0 min 0 min 58 W/m 32,2 km/h (5 Bft) 97,83 %
13.02.2020 16:06 7,9 C 7,8 C 6,7 C 87 % 997,9 hPa 0,0 l/m 0 min 0 min 53 W/m 16,1 km/h (3 Bft) 97,87 %
13.02.2020 16:08 7,9 C 7,8 C 6,7 C 86 % 997,8 hPa 0,0 l/m 0 min 0 min 53 W/m 12,9 km/h (3 Bft) 95,74 %
13.02.2020 16:10 7,9 C 7,8 C 6,7 C 86 % 997,8 hPa 0,0 l/m 0 min 0 min 62 W/m 12,9 km/h (3 Bft) 95,74 %
13.02.2020 16:12 7,9 C 7,8 C 6,7 C 86 % 997,8 hPa 0,0 l/m 0 min 0 min 62 W/m 12,9 km/h (3 Bft) 95,74 %
13.02.2020 16:14 7,9 C 7,8 C 6,7 C 86 % 997,8 hPa 0,0 l/m 0 min 0 min 58 W/m 12,9 km/h (3 Bft) 93,62 %
13.02.2020 16:16 8,0 C 7,8 C 6,7 C 86 % 997,8 hPa 0,0 l/m 0 min 0 min 50 W/m 12,9 km/h (3 Bft) 95,65 %
13.02.2020 16:18 8,0 C 7,8 C 6,7 C 86 % 997,8 hPa 0,0 l/m 0 min 0 min 43 W/m 19,3 km/h (3 Bft) 95,74 %
13.02.2020 16:20 8,0 C 7,8 C 6,7 C 86 % 997,8 hPa 0,0 l/m 0 min 0 min 40 W/m 16,1 km/h (3 Bft) 95,74 %
13.02.2020 16:22 8,0 C 7,8 C 6,7 C 86 % 997,8 hPa 0,0 l/m 0 min 0 min 39 W/m 16,1 km/h (3 Bft) 95,74 %
13.02.2020 16:24 8,1 C 7,8 C 6,7 C 86 % 997,8 hPa 0,0 l/m 0 min 0 min 39 W/m 19,3 km/h (3 Bft) 95,74 %
13.02.2020 16:26 8,1 C 7,8 C 6,7 C 86 % 997,7 hPa 0,0 l/m 0 min 0 min 35 W/m 19,3 km/h (3 Bft) 95,74 %
13.02.2020 16:28 8,1 C 7,8 C 6,1 C 86 % 997,7 hPa 0,0 l/m 0 min 0 min 27 W/m 12,9 km/h (3 Bft) 95,65 %
13.02.2020 16:30 8,1 C 7,2 C 6,1 C 86 % 997,7 hPa 0,0 l/m 0 min 0 min 25 W/m 12,9 km/h (3 Bft) 95,74 %
13.02.2020 16:32 8,1 C 7,2 C 6,1 C 86 % 997,8 hPa 0,0 l/m 0 min 0 min 21 W/m 16,1 km/h (3 Bft) 93,62 %
13.02.2020 16:34 8,1 C 7,2 C 6,1 C 86 % 997,8 hPa 0,0 l/m 0 min 0 min 21 W/m 19,3 km/h (3 Bft) 93,62 %
13.02.2020 16:36 8,1 C 7,2 C 6,1 C 86 % 997,8 hPa 0,0 l/m 0 min 0 min 21 W/m 19,3 km/h (3 Bft) 95,74 %
13.02.2020 16:38 8,1 C 7,2 C 6,7 C 86 % 997,7 hPa 0,0 l/m 0 min 0 min 28 W/m 22,5 km/h (4 Bft) 91,30 %
13.02.2020 16:40 8,1 C 7,2 C 6,7 C 86 % 997,8 hPa 0,0 l/m 0 min 0 min 32 W/m 25,7 km/h (4 Bft) 97,87 %
13.02.2020 16:42 8,1 C 7,2 C 6,7 C 86 % 997,8 hPa 0,0 l/m 0 min 0 min 24 W/m 16,1 km/h (3 Bft) 95,74 %
13.02.2020 16:44 8,1 C 7,2 C 6,7 C 86 % 997,8 hPa 0,0 l/m 0 min 0 min 24 W/m 19,3 km/h (3 Bft) 97,87 %
13.02.2020 16:46 8,0 C 7,2 C 6,7 C 86 % 997,8 hPa 0,0 l/m 0 min 0 min 27 W/m 22,5 km/h (4 Bft) 97,87 %
13.02.2020 16:48 8,0 C 7,2 C 6,7 C 86 % 997,8 hPa 0,0 l/m 0 min 0 min 30 W/m 22,5 km/h (4 Bft) 97,87 %
13.02.2020 16:50 8,0 C 7,2 C 6,7 C 86 % 997,8 hPa 0,0 l/m 0 min 0 min 26 W/m 16,1 km/h (3 Bft) 95,65 %
13.02.2020 16:52 8,0 C 7,2 C 6,7 C 86 % 997,8 hPa 0,0 l/m 0 min 0 min 24 W/m 16,1 km/h (3 Bft) 95,74 %
13.02.2020 16:54 8,0 C 7,2 C 6,1 C 86 % 997,8 hPa 0,0 l/m 0 min 0 min 19 W/m 19,3 km/h (3 Bft) 97,87 %
13.02.2020 16:56 8,0 C 7,2 C 6,1 C 86 % 997,8 hPa 0,0 l/m 0 min 0 min 16 W/m 16,1 km/h (3 Bft) 93,62 %
13.02.2020 16:58 8,0 C 7,2 C 6,1 C 86 % 997,8 hPa 0,0 l/m 0 min 0 min 12 W/m 12,9 km/h (3 Bft) 95,74 %
13.02.2020 17:00 7,9 C 7,2 C 6,1 C 86 % 997,7 hPa 0,0 l/m 0 min 0 min 10 W/m 22,5 km/h (4 Bft) 97,87 %
13.02.2020 17:02 7,9 C 7,2 C 6,1 C 86 % 997,8 hPa 0,0 l/m 0 min 0 min 9 W/m 16,1 km/h (3 Bft) 95,65 %
13.02.2020 17:04 7,9 C 6,7 C 6,1 C 86 % 997,8 hPa 0,0 l/m 0 min 2 min 7 W/m 19,3 km/h (3 Bft) 97,87 %
13.02.2020 17:06 7,9 C 6,1 C 5,6 C 86 % 997,9 hPa 0,0 l/m 0 min 2 min 7 W/m 16,1 km/h (3 Bft) 95,74 %
13.02.2020 17:08 7,8 C 5,6 C 5,0 C 87 % 997,8 hPa 0,2 l/m 0 min 2 min 7 W/m 19,3 km/h (3 Bft) 95,74 %
13.02.2020 17:10 7,8 C 5,6 C 5,0 C 87 % 997,7 hPa 0,0 l/m 0 min 2 min 10 W/m 16,1 km/h (3 Bft) 97,87 %
13.02.2020 17:12 7,8 C 5,6 C 5,0 C 87 % 997,7 hPa 0,0 l/m 0 min 2 min 13 W/m 16,1 km/h (3 Bft) 97,87 %
13.02.2020 17:14 7,8 C 5,6 C 5,0 C 87 % 997,7 hPa 0,0 l/m 0 min 2 min 12 W/m 12,9 km/h (3 Bft) 52,38 %
13.02.2020 17:16 7,8 C 5,6 C 5,0 C 88 % 997,7 hPa 0,0 l/m 0 min 0 min 11 W/m 12,9 km/h (3 Bft) 97,87 %
13.02.2020 17:18 7,7 C 5,6 C 5,0 C 88 % 997,8 hPa 0,0 l/m 0 min 0 min 9 W/m 16,1 km/h (3 Bft) 97,87 %
13.02.2020 17:20 7,7 C 5,6 C 5,0 C 88 % 997,8 hPa 0,0 l/m 0 min 0 min 10 W/m 19,3 km/h (3 Bft) 97,87 %
13.02.2020 17:22 7,7 C 5,6 C 5,0 C 88 % 997,8 hPa 0,0 l/m 0 min 0 min 11 W/m 12,9 km/h (3 Bft) 95,74 %
13.02.2020 17:24 7,6 C 5,6 C 5,0 C 88 % 997,9 hPa 0,0 l/m 0 min 0 min 10 W/m 16,1 km/h (3 Bft) 95,65 %
13.02.2020 17:26 7,6 C 5,6 C 5,0 C 88 % 997,8 hPa 0,0 l/m 0 min 0 min 7 W/m 9,7 km/h (2 Bft) 97,87 %
13.02.2020 17:28 7,6 C 5,6 C 5,0 C 89 % 997,8 hPa 0,0 l/m 0 min 0 min 5 W/m 12,9 km/h (3 Bft) 97,87 %
13.02.2020 17:30 7,6 C 5,6 C 5,0 C 89 % 997,9 hPa 0,0 l/m 0 min 0 min 0 W/m 16,1 km/h (3 Bft) 97,87 %
13.02.2020 17:32 7,5 C 5,6 C 5,0 C 89 % 997,9 hPa 0,0 l/m 0 min 2 min 0 W/m 16,1 km/h (3 Bft) 97,87 %
13.02.2020 17:34 7,4 C 5,6 C 5,0 C 89 % 998,0 hPa 0,0 l/m 0 min 2 min 0 W/m 16,1 km/h (3 Bft) 97,87 %
13.02.2020 17:36 7,4 C 5,6 C 5,0 C 89 % 998,0 hPa 0,2 l/m 0 min 2 min 2 W/m 16,1 km/h (3 Bft) 100,00 %
13.02.2020 17:38 7,4 C 5,6 C 5,0 C 89 % 998,1 hPa 0,0 l/m 0 min 2 min 0 W/m 25,7 km/h (4 Bft) 100,00 %
13.02.2020 17:40 7,4 C 5,0 C 5,0 C 90 % 998,2 hPa 0,0 l/m 0 min 2 min 0 W/m 32,2 km/h (5 Bft) 97,87 %
13.02.2020 17:42 7,3 C 5,0 C 5,0 C 90 % 998,2 hPa 0,2 l/m 0 min 2 min 0 W/m 19,3 km/h (3 Bft) 97,87 %
13.02.2020 17:44 7,3 C 5,0 C 5,0 C 90 % 998,2 hPa 0,2 l/m 0 min 2 min 0 W/m 19,3 km/h (3 Bft) 100,00 %
13.02.2020 17:46 7,3 C 5,0 C 5,0 C 90 % 998,2 hPa 0,0 l/m 0 min 2 min 0 W/m 16,1 km/h (3 Bft) 97,87 %
13.02.2020 17:48 7,3 C 5,0 C 5,0 C 91 % 998,2 hPa 0,0 l/m 0 min 2 min 0 W/m 16,1 km/h (3 Bft) 100,00 %
13.02.2020 17:50 7,3 C 5,0 C 5,0 C 91 % 998,1 hPa 0,0 l/m 0 min 2 min 0 W/m 16,1 km/h (3 Bft) 100,00 %
13.02.2020 17:52 7,2 C 5,0 C 5,0 C 91 % 998,1 hPa 0,2 l/m 0 min 0 min 0 W/m 12,9 km/h (3 Bft) 100,00 %
13.02.2020 17:54 7,2 C 5,0 C 5,0 C 91 % 998,1 hPa 0,0 l/m 0 min 2 min 0 W/m 19,3 km/h (3 Bft) 97,87 %
13.02.2020 17:56 7,2 C 5,0 C 5,0 C 91 % 998,0 hPa 0,0 l/m 0 min 2 min 0 W/m 16,1 km/h (3 Bft) 100,00 %
13.02.2020 17:58 7,2 C 5,0 C 5,0 C 91 % 997,9 hPa 0,0 l/m 0 min 2 min 0 W/m 16,1 km/h (3 Bft) 100,00 %
13.02.2020 18:00 7,1 C 5,0 C 5,0 C 92 % 998,0 hPa 0,0 l/m 0 min 2 min 0 W/m 16,1 km/h (3 Bft) 100,00 %
13.02.2020 18:02 7,1 C 5,0 C 4,4 C 92 % 998,1 hPa 0,0 l/m 0 min 0 min 0 W/m 19,3 km/h (3 Bft) 100,00 %
13.02.2020 18:04 7,1 C 5,0 C 4,4 C 92 % 998,1 hPa 0,0 l/m 0 min 0 min 0 W/m 19,3 km/h (3 Bft) 100,00 %
13.02.2020 18:06 7,0 C 5,0 C 4,4 C 92 % 998,2 hPa 0,0 l/m 0 min 0 min 0 W/m 19,3 km/h (3 Bft) 100,00 %
13.02.2020 18:08 7,0 C 5,0 C 4,4 C 92 % 998,2 hPa 0,0 l/m 0 min 0 min 0 W/m 19,3 km/h (3 Bft) 100,00 %
13.02.2020 18:10 6,9 C 5,0 C 4,4 C 92 % 998,2 hPa 0,0 l/m 0 min 0 min 0 W/m 16,1 km/h (3 Bft) 100,00 %
13.02.2020 18:12 6,9 C 5,0 C 4,4 C 93 % 998,2 hPa 0,0 l/m 0 min 0 min 0 W/m 12,9 km/h (3 Bft) 100,00 %
13.02.2020 18:14 6,9 C 5,0 C 4,4 C 93 % 998,2 hPa 0,0 l/m 0 min 0 min 0 W/m 12,9 km/h (3 Bft) 100,00 %
13.02.2020 18:16 6,8 C 5,0 C 4,4 C 93 % 998,1 hPa 0,0 l/m 0 min 0 min 0 W/m 19,3 km/h (3 Bft) 100,00 %
13.02.2020 18:18 6,8 C 5,0 C 4,4 C 93 % 998,1 hPa 0,0 l/m 0 min 0 min 0 W/m 19,3 km/h (3 Bft) 100,00 %
13.02.2020 18:20 6,7 C 5,0 C 4,4 C 93 % 998,1 hPa 0,0 l/m 0 min 0 min 0 W/m 12,9 km/h (3 Bft) 100,00 %
13.02.2020 18:22 6,7 C 5,0 C 4,4 C 93 % 998,0 hPa 0,0 l/m 0 min 0 min 0 W/m 12,9 km/h (3 Bft) 100,00 %
13.02.2020 18:24 6,7 C 5,0 C 4,4 C 93 % 998,0 hPa 0,0 l/m 0 min 0 min 0 W/m 12,9 km/h (3 Bft) 100,00 %
13.02.2020 18:26 6,6 C 5,0 C 4,4 C 93 % 998,1 hPa 0,0 l/m 0 min 0 min 0 W/m 0,0 km/h (0 Bft) 100,00 %
13.02.2020 18:28 6,6 C 5,0 C 4,4 C 93 % 998,1 hPa 0,0 l/m 0 min 0 min 0 W/m 0,0 km/h (0 Bft) 100,00 %
13.02.2020 18:30 6,6 C 5,0 C 4,4 C 93 % 998,1 hPa 0,0 l/m 0 min 0 min 0 W/m 0,0 km/h (0 Bft) 100,00 %
13.02.2020 18:32 6,5 C 5,0 C 4,4 C 93 % 998,1 hPa 0,0 l/m 0 min 0 min 0 W/m 0,0 km/h (0 Bft) 100,00 %
13.02.2020 18:34 6,5 C 5,0 C 4,4 C 94 % 998,1 hPa 0,0 l/m 0 min 0 min 0 W/m 0,0 km/h (0 Bft) 100,00 %
13.02.2020 18:36 6,5 C 5,0 C 4,4 C 94 % 998,1 hPa 0,0 l/m 0 min 0 min 0 W/m 0,0 km/h (0 Bft) 100,00 %
13.02.2020 18:38 6,5 C 5,0 C 4,4 C 94 % 998,1 hPa 0,0 l/m 0 min 0 min 0 W/m 0,0 km/h (0 Bft) 100,00 %
13.02.2020 18:40 6,5 C 5,0 C 4,4 C 94 % 998,1 hPa 0,0 l/m 0 min 0 min 0 W/m 0,0 km/h (0 Bft) 100,00 %
13.02.2020 18:42 6,4 C 5,0 C 4,4 C 94 % 998,2 hPa 0,0 l/m 0 min 0 min 0 W/m 16,1 km/h (3 Bft) 100,00 %
13.02.2020 18:44 6,4 C 5,0 C 4,4 C 94 % 998,2 hPa 0,0 l/m 0 min 0 min 0 W/m 19,3 km/h (3 Bft) 100,00 %
13.02.2020 18:46 6,4 C 5,0 C 4,4 C 94 % 998,2 hPa 0,0 l/m 0 min 0 min 0 W/m 3,2 km/h (1 Bft) 97,83 %
13.02.2020 18:48 6,4 C 5,0 C 4,4 C 94 % 998,2 hPa 0,0 l/m 0 min 0 min 0 W/m 9,7 km/h (2 Bft) 100,00 %
13.02.2020 18:50 6,4 C 5,0 C 4,4 C 94 % 998,3 hPa 0,0 l/m 0 min 0 min 0 W/m 0,0 km/h (0 Bft) 97,87 %
13.02.2020 18:52 6,4 C 5,0 C 4,4 C 94 % 998,2 hPa 0,0 l/m 0 min 0 min 0 W/m 0,0 km/h (0 Bft) 97,87 %
13.02.2020 18:54 6,4 C 5,0 C 4,4 C 94 % 998,2 hPa 0,0 l/m 0 min 0 min 0 W/m 12,9 km/h (3 Bft) 97,87 %
13.02.2020 18:56 6,4 C 5,0 C 4,4 C 94 % 998,3 hPa 0,0 l/m 0 min 0 min 0 W/m 16,1 km/h (3 Bft) 97,87 %
13.02.2020 18:58 6,4 C 5,0 C 4,4 C 94 % 998,3 hPa 0,0 l/m 0 min 0 min 0 W/m 16,1 km/h (3 Bft) 97,83 %
13.02.2020 19:00 6,4 C 5,0 C 4,4 C 94 % 998,4 hPa 0,0 l/m 0 min 0 min 0 W/m 6,4 km/h (2 Bft) 97,87 %
13.02.2020 19:02 6,4 C 5,0 C 4,4 C 94 % 998,4 hPa 0,0 l/m 0 min 0 min 0 W/m 0,0 km/h (0 Bft) 97,87 %
13.02.2020 19:04 6,4 C 5,0 C 4,4 C 94 % 998,4 hPa 0,0 l/m 0 min 0 min 0 W/m 12,9 km/h (3 Bft) 97,87 %
13.02.2020 19:06 6,4 C 5,0 C 4,4 C 94 % 998,4 hPa 0,0 l/m 0 min 0 min 0 W/m 12,9 km/h (3 Bft) 95,74 %
13.02.2020 19:08 6,4 C 5,0 C 4,4 C 94 % 998,4 hPa 0,0 l/m 0 min 0 min 0 W/m 12,9 km/h (3 Bft) 95,74 %
13.02.2020 19:10 6,4 C 5,0 C 4,4 C 94 % 998,4 hPa 0,0 l/m 0 min 0 min 0 W/m 6,4 km/h (2 Bft) 93,48 %
13.02.2020 19:12 6,4 C 5,0 C 4,4 C 94 % 998,4 hPa 0,0 l/m 0 min 0 min 0 W/m 12,9 km/h (3 Bft) 97,87 %
13.02.2020 19:14 6,4 C 5,0 C 4,4 C 94 % 998,4 hPa 0,0 l/m 0 min 0 min 0 W/m 12,9 km/h (3 Bft) 95,74 %
13.02.2020 19:16 6,4 C 5,0 C 4,4 C 94 % 998,4 hPa 0,0 l/m 0 min 0 min 0 W/m 12,9 km/h (3 Bft) 95,74 %
13.02.2020 19:18 6,4 C 5,0 C 4,4 C 94 % 998,4 hPa 0,0 l/m 0 min 0 min 0 W/m 12,9 km/h (3 Bft) 93,62 %
13.02.2020 19:20 6,4 C 5,0 C 4,4 C 94 % 998,5 hPa 0,0 l/m 0 min 0 min 0 W/m 12,9 km/h (3 Bft) 91,49 %
13.02.2020 19:22 6,4 C 5,0 C 4,4 C 95 % 998,5 hPa 0,0 l/m 0 min 0 min 0 W/m 3,2 km/h (1 Bft) 93,48 %
13.02.2020 19:24 6,3 C 5,0 C 4,4 C 95 % 998,5 hPa 0,0 l/m 0 min 0 min 0 W/m 3,2 km/h (1 Bft) 91,49 %
13.02.2020 19:26 6,3 C 5,0 C 4,4 C 95 % 998,5 hPa 0,0 l/m 0 min 0 min 0 W/m 12,9 km/h (3 Bft) 91,49 %
13.02.2020 19:28 6,3 C 5,0 C 4,4 C 95 % 998,4 hPa 0,0 l/m 0 min 0 min 0 W/m 6,4 km/h (2 Bft) 93,62 %
13.02.2020 19:30 6,3 C 5,0 C 4,4 C 95 % 998,4 hPa 0,0 l/m 0 min 0 min 0 W/m 12,9 km/h (3 Bft) 91,49 %
13.02.2020 19:32 6,3 C 5,0 C 4,4 C 95 % 998,5 hPa 0,0 l/m 0 min 0 min 0 W/m 16,1 km/h (3 Bft) 93,48 %
13.02.2020 19:34 6,3 C 5,0 C 4,4 C 95 % 998,5 hPa 0,0 l/m 0 min 0 min 0 W/m 0,0 km/h (0 Bft) 95,74 %
13.02.2020 19:36 6,3 C 5,0 C 4,4 C 95 % 998,6 hPa 0,0 l/m 0 min 0 min 0 W/m 0,0 km/h (0 Bft) 93,62 %
13.02.2020 19:38 6,3 C 5,0 C 4,4 C 95 % 998,6 hPa 0,0 l/m 0 min 0 min 0 W/m 0,0 km/h (0 Bft) 93,62 %
13.02.2020 19:40 6,3 C 5,0 C 4,4 C 95 % 998,6 hPa 0,0 l/m 0 min 0 min 0 W/m 0,0 km/h (0 Bft) 95,74 %
13.02.2020 19:42 6,3 C 5,0 C 4,4 C 95 % 998,6 hPa 0,0 l/m 0 min 0 min 0 W/m 0,0 km/h (0 Bft) 93,62 %
13.02.2020 19:44 6,3 C 5,0 C 4,4 C 95 % 998,7 hPa 0,0 l/m 0 min 0 min 0 W/m 22,5 km/h (4 Bft) 95,65 %
13.02.2020 19:46 6,3 C 5,0 C 4,4 C 95 % 998,7 hPa 0,0 l/m 0 min 0 min 0 W/m 3,2 km/h (1 Bft) 91,49 %
13.02.2020 19:48 6,3 C 5,0 C 4,4 C 95 % 998,7 hPa 0,0 l/m 0 min 0 min 0 W/m 12,9 km/h (3 Bft) 95,74 %
13.02.2020 19:50 6,3 C 5,0 C 4,4 C 95 % 998,8 hPa 0,0 l/m 0 min 0 min 0 W/m 6,4 km/h (2 Bft) 95,74 %
13.02.2020 19:51 6,3 C 5,0 C 4,4 C 95 % 998,8 hPa 0,0 l/m 0 min 0 min 0 W/m 6,4 km/h (2 Bft) 95,74 %
13.02.2020 19:54 6,3 C 5,0 C 4,4 C 95 % 998,8 hPa 0,0 l/m 0 min 0 min 0 W/m 12,9 km/h (3 Bft) 93,62 %
13.02.2020 19:56 6,3 C 5,0 C 4,4 C 95 % 998,9 hPa 0,0 l/m 0 min 0 min 0 W/m 0,0 km/h (0 Bft) 95,65 %
13.02.2020 19:58 6,3 C 5,0 C 4,4 C 95 % 999,0 hPa 0,0 l/m 0 min 0 min 0 W/m 0,0 km/h (0 Bft) 95,74 %
13.02.2020 20:00 6,3 C 5,0 C 4,4 C 95 % 999,0 hPa 0,0 l/m 0 min 0 min 0 W/m 0,0 km/h (0 Bft) 97,87 %
13.02.2020 20:02 6,3 C 5,0 C 4,4 C 95 % 999,0 hPa 0,0 l/m 0 min 0 min 0 W/m 3,2 km/h (1 Bft) 97,87 %
13.02.2020 20:04 6,4 C 5,0 C 4,4 C 95 % 999,1 hPa 0,0 l/m 0 min 0 min 0 W/m 0,0 km/h (0 Bft) 97,87 %
13.02.2020 20:06 6,4 C 5,0 C 4,4 C 95 % 999,2 hPa 0,0 l/m 0 min 2 min 0 W/m 0,0 km/h (0 Bft) 95,74 %
13.02.2020 20:08 6,4 C 5,0 C 4,4 C 95 % 999,2 hPa 0,0 l/m 0 min 2 min 0 W/m 6,4 km/h (2 Bft) 97,83 %
13.02.2020 20:10 6,4 C 5,0 C 4,4 C 95 % 999,2 hPa 0,0 l/m 0 min 2 min 0 W/m 12,9 km/h (3 Bft) 97,87 %
13.02.2020 20:12 6,4 C 5,0 C 4,4 C 95 % 999,2 hPa 0,2 l/m 0 min 2 min 0 W/m 3,2 km/h (1 Bft) 97,87 %
13.02.2020 20:14 6,4 C 5,0 C 4,4 C 95 % 999,2 hPa 0,0 l/m 0 min 2 min 0 W/m 3,2 km/h (1 Bft) 97,87 %
13.02.2020 20:16 6,4 C 5,0 C 4,4 C 95 % 999,2 hPa 0,0 l/m 0 min 2 min 0 W/m 0,0 km/h (0 Bft) 100,00 %
13.02.2020 20:18 6,4 C 5,0 C 4,4 C 95 % 999,3 hPa 0,0 l/m 0 min 2 min 0 W/m 0,0 km/h (0 Bft) 100,00 %
13.02.2020 20:20 6,4 C 5,0 C 4,4 C 95 % 999,3 hPa 0,0 l/m 0 min 2 min 0 W/m 0,0 km/h (0 Bft) 100,00 %
13.02.2020 20:22 6,4 C 5,0 C 4,4 C 95 % 999,2 hPa 0,0 l/m 0 min 2 min 0 W/m 0,0 km/h (0 Bft) 97,87 %
13.02.2020 20:24 6,4 C 5,0 C 4,4 C 95 % 999,2 hPa 0,0 l/m 0 min 2 min 0 W/m 0,0 km/h (0 Bft) 97,87 %
13.02.2020 20:26 6,4 C 5,0 C 4,4 C 95 % 999,2 hPa 0,2 l/m 0 min 0 min 0 W/m 0,0 km/h (0 Bft) 97,87 %
13.02.2020 20:28 6,4 C 5,0 C 4,4 C 95 % 999,2 hPa 0,0 l/m 0 min 2 min 0 W/m 0,0 km/h (0 Bft) 100,00 %
13.02.2020 20:30 6,4 C 5,0 C 4,4 C 95 % 999,2 hPa 0,0 l/m 0 min 0 min 0 W/m 0,0 km/h (0 Bft) 100,00 %
13.02.2020 20:32 6,4 C 5,0 C 4,4 C 95 % 999,2 hPa 0,0 l/m 0 min 0 min 0 W/m 0,0 km/h (0 Bft) 97,83 %
13.02.2020 20:34 6,4 C 5,0 C 4,4 C 95 % 999,4 hPa 0,0 l/m 0 min 0 min 0 W/m 0,0 km/h (0 Bft) 100,00 %
13.02.2020 20:36 6,4 C 5,0 C 4,4 C 96 % 999,4 hPa 0,0 l/m 0 min 0 min 0 W/m 0,0 km/h (0 Bft) 100,00 %
13.02.2020 20:38 6,4 C 5,0 C 4,4 C 95 % 999,4 hPa 0,0 l/m 0 min 0 min 0 W/m 0,0 km/h (0 Bft) 100,00 %
13.02.2020 20:40 6,4 C 5,0 C 4,4 C 95 % 999,5 hPa 0,0 l/m 0 min 0 min 0 W/m 6,4 km/h (2 Bft) 100,00 %
13.02.2020 20:42 6,4 C 5,0 C 4,4 C 95 % 999,5 hPa 0,0 l/m 0 min 0 min 0 W/m 0,0 km/h (0 Bft) 100,00 %
13.02.2020 20:44 6,3 C 5,0 C 4,4 C 95 % 999,5 hPa 0,0 l/m 0 min 0 min 0 W/m 6,4 km/h (2 Bft) 100,00 %
13.02.2020 20:46 6,3 C 5,0 C 4,4 C 95 % 999,5 hPa 0,0 l/m 0 min 0 min 0 W/m 0,0 km/h (0 Bft) 100,00 %
13.02.2020 20:48 6,3 C 5,0 C 4,4 C 95 % 999,6 hPa 0,0 l/m 0 min 0 min 0 W/m 6,4 km/h (2 Bft) 100,00 %
13.02.2020 20:50 6,3 C 5,0 C 4,4 C 96 % 999,6 hPa 0,0 l/m 0 min 0 min 0 W/m 3,2 km/h (1 Bft) 100,00 %
13.02.2020 20:52 6,3 C 5,0 C 4,4 C 96 % 999,7 hPa 0,0 l/m 0 min 0 min 0 W/m 16,1 km/h (3 Bft) 100,00 %
13.02.2020 20:54 6,3 C 5,0 C 4,4 C 96 % 999,7 hPa 0,0 l/m 0 min 0 min 0 W/m 3,2 km/h (1 Bft) 100,00 %
13.02.2020 20:56 6,3 C 5,0 C 4,4 C 96 % 999,8 hPa 0,0 l/m 0 min 0 min 0 W/m 3,2 km/h (1 Bft) 100,00 %
13.02.2020 20:58 6,3 C 5,0 C 4,4 C 96 % 999,7 hPa 0,0 l/m 0 min 0 min 0 W/m 3,2 km/h (1 Bft) 100,00 %
13.02.2020 21:00 6,3 C 5,0 C 4,4 C 96 % 999,8 hPa 0,0 l/m 0 min 0 min 0 W/m 3,2 km/h (1 Bft) 100,00 %
13.02.2020 21:02 6,3 C 5,0 C 4,4 C 96 % 999,9 hPa 0,0 l/m 0 min 0 min 0 W/m 0,0 km/h (0 Bft) 97,87 %
13.02.2020 21:04 6,3 C 5,0 C 4,4 C 96 % 999,9 hPa 0,0 l/m 0 min 0 min 0 W/m 0,0 km/h (0 Bft) 97,87 %
13.02.2020 21:06 6,3 C 5,0 C 4,4 C 96 % 999,9 hPa 0,0 l/m 0 min 0 min 0 W/m 6,4 km/h (2 Bft) 100,00 %
13.02.2020 21:08 6,3 C 5,0 C 4,4 C 96 % 1000,0 hPa 0,0 l/m 0 min 0 min 0 W/m 3,2 km/h (1 Bft) 100,00 %
13.02.2020 21:10 6,3 C 5,0 C 4,4 C 96 % 1000,0 hPa 0,0 l/m 0 min 0 min 0 W/m 0,0 km/h (0 Bft) 97,87 %
13.02.2020 21:12 6,3 C 5,0 C 4,4 C 96 % 1000,1 hPa 0,0 l/m 0 min 0 min 0 W/m 3,2 km/h (1 Bft) 97,87 %
13.02.2020 21:14 6,3 C 5,0 C 4,4 C 96 % 1000,1 hPa 0,0 l/m 0 min 0 min 0 W/m 3,2 km/h (1 Bft) 100,00 %
13.02.2020 21:16 6,3 C 5,0 C 4,4 C 96 % 1000,1 hPa 0,0 l/m 0 min 0 min 0 W/m 3,2 km/h (1 Bft) 100,00 %
13.02.2020 21:18 6,3 C 5,0 C 4,4 C 96 % 1000,2 hPa 0,0 l/m 0 min 0 min 0 W/m 3,2 km/h (1 Bft) 97,83 %
13.02.2020 21:20 6,3 C 5,0 C 4,4 C 96 % 1000,2 hPa 0,0 l/m 0 min 0 min 0 W/m 3,2 km/h (1 Bft) 100,00 %
13.02.2020 21:22 6,3 C 5,0 C 4,4 C 96 % 1000,2 hPa 0,0 l/m 0 min 0 min 0 W/m 3,2 km/h (1 Bft) 97,87 %
13.02.2020 21:24 6,3 C 5,0 C 4,4 C 96 % 1000,2 hPa 0,0 l/m 0 min 0 min 0 W/m 6,4 km/h (2 Bft) 100,00 %
13.02.2020 21:26 6,3 C 5,0 C 4,4 C 96 % 1000,3 hPa 0,0 l/m 0 min 0 min 0 W/m 3,2 km/h (1 Bft) 100,00 %
13.02.2020 21:28 6,3 C 5,0 C 4,4 C 96 % 1000,4 hPa 0,0 l/m 0 min 0 min 0 W/m 0,0 km/h (0 Bft) 100,00 %
13.02.2020 21:30 6,3 C 5,0 C 4,4 C 96 % 1000,4 hPa 0,0 l/m 0 min 0 min 0 W/m 3,2 km/h (1 Bft) 100,00 %
13.02.2020 21:32 6,3 C 5,0 C 4,4 C 96 % 1000,6 hPa 0,0 l/m 0 min 0 min 0 W/m 0,0 km/h (0 Bft) 97,87 %
13.02.2020 21:34 6,3 C 5,0 C 4,4 C 96 % 1000,6 hPa 0,0 l/m 0 min 0 min 0 W/m 0,0 km/h (0 Bft) 100,00 %
13.02.2020 21:36 6,3 C 5,0 C 4,4 C 96 % 1000,7 hPa 0,0 l/m 0 min 0 min 0 W/m 0,0 km/h (0 Bft) 97,87 %
13.02.2020 21:38 6,3 C 5,0 C 4,4 C 96 % 1000,9 hPa 0,0 l/m 0 min 0 min 0 W/m 3,2 km/h (1 Bft) 95,74 %
13.02.2020 21:40 6,2 C 5,0 C 4,4 C 96 % 1000,9 hPa 0,0 l/m 0 min 0 min 0 W/m 0,0 km/h (0 Bft) 97,83 %
13.02.2020 21:42 6,3 C 5,0 C 4,4 C 96 % 1000,9 hPa 0,0 l/m 0 min 0 min 0 W/m 0,0 km/h (0 Bft) 97,87 %
13.02.2020 21:44 6,2 C 5,0 C 4,4 C 96 % 1000,9 hPa 0,0 l/m 0 min 0 min 0 W/m 0,0 km/h (0 Bft) 95,74 %
13.02.2020 21:46 6,2 C 5,0 C 4,4 C 96 % 1001,0 hPa 0,0 l/m 0 min 0 min 0 W/m 0,0 km/h (0 Bft) 93,62 %
13.02.2020 21:48 6,2 C 5,0 C 4,4 C 96 % 1001,0 hPa 0,0 l/m 0 min 0 min 0 W/m 0,0 km/h (0 Bft) 95,74 %
13.02.2020 21:50 6,2 C 5,0 C 4,4 C 96 % 1001,1 hPa 0,0 l/m 0 min 0 min 0 W/m 0,0 km/h (0 Bft) 95,74 %
13.02.2020 21:52 6,2 C 5,0 C 4,4 C 96 % 1001,2 hPa 0,0 l/m 0 min 0 min 0 W/m 0,0 km/h (0 Bft) 95,65 %
13.02.2020 21:54 6,2 C 5,0 C 4,4 C 97 % 1001,3 hPa 0,0 l/m 0 min 0 min 0 W/m 0,0 km/h (0 Bft) 95,74 %
13.02.2020 21:56 6,2 C 5,0 C 4,4 C 97 % 1001,2 hPa 0,0 l/m 0 min 0 min 0 W/m 0,0 km/h (0 Bft) 91,49 %
13.02.2020 21:58 6,2 C 5,0 C 4,4 C 97 % 1001,3 hPa 0,0 l/m 0 min 0 min 0 W/m 0,0 km/h (0 Bft) 93,62 %
13.02.2020 22:00 6,2 C 5,0 C 4,4 C 97 % 1001,3 hPa 0,0 l/m 0 min 0 min 0 W/m 0,0 km/h (0 Bft) 95,74 %
13.02.2020 22:02 6,2 C 5,0 C 4,4 C 97 % 1001,4 hPa 0,0 l/m 0 min 0 min 0 W/m 0,0 km/h (0 Bft) 93,62 %
13.02.2020 22:04 6,2 C 5,0 C 4,4 C 97 % 1001,4 hPa 0,0 l/m 0 min 0 min 0 W/m 0,0 km/h (0 Bft) 93,48 %
13.02.2020 22:06 6,2 C 5,0 C 4,4 C 97 % 1001,5 hPa 0,0 l/m 0 min 0 min 0 W/m 0,0 km/h (0 Bft) 95,74 %
13.02.2020 22:08 6,2 C 5,0 C 4,4 C 97 % 1001,6 hPa 0,0 l/m 0 min 0 min 0 W/m 0,0 km/h (0 Bft) 95,74 %
13.02.2020 22:10 6,2 C 5,0 C 4,4 C 97 % 1001,6 hPa 0,0 l/m 0 min 0 min 0 W/m 3,2 km/h (1 Bft) 93,62 %
13.02.2020 22:12 6,2 C 5,0 C 4,4 C 97 % 1001,6 hPa 0,0 l/m 0 min 0 min 0 W/m 0,0 km/h (0 Bft) 95,74 %
13.02.2020 22:14 6,2 C 5,0 C 4,4 C 97 % 1001,6 hPa 0,0 l/m 0 min 0 min 0 W/m 3,2 km/h (1 Bft) 95,74 %
13.02.2020 22:16 6,2 C 5,0 C 4,4 C 97 % 1001,7 hPa 0,0 l/m 0 min 0 min 0 W/m 0,0 km/h (0 Bft) 95,65 %
13.02.2020 22:18 6,2 C 5,0 C 4,4 C 97 % 1001,8 hPa 0,0 l/m 0 min 0 min 0 W/m 0,0 km/h (0 Bft) 95,74 %
13.02.2020 22:20 6,2 C 5,0 C 4,4 C 97 % 1001,9 hPa 0,0 l/m 0 min 2 min 0 W/m 0,0 km/h (0 Bft) 95,74 %
13.02.2020 22:22 6,2 C 5,6 C 4,4 C 97 % 1001,9 hPa 0,0 l/m 0 min 0 min 0 W/m 0,0 km/h (0 Bft) 97,87 %
13.02.2020 22:24 6,2 C 5,6 C 4,4 C 97 % 1001,9 hPa 0,0 l/m 0 min 0 min 0 W/m 0,0 km/h (0 Bft) 97,87 %
13.02.2020 22:26 6,2 C 5,6 C 4,4 C 97 % 1002,0 hPa 0,0 l/m 0 min 0 min 0 W/m 0,0 km/h (0 Bft) 97,87 %
13.02.2020 22:28 6,2 C 5,6 C 4,4 C 97 % 1002,1 hPa 0,0 l/m 0 min 0 min 0 W/m 3,2 km/h (1 Bft) 95,65 %
13.02.2020 22:30 6,2 C 5,6 C 4,4 C 97 % 1002,2 hPa 0,0 l/m 0 min 0 min 0 W/m 0,0 km/h (0 Bft) 97,87 %
13.02.2020 22:32 6,2 C 5,6 C 4,4 C 97 % 1002,3 hPa 0,0 l/m 0 min 0 min 0 W/m 0,0 km/h (0 Bft) 100,00 %
13.02.2020 22:34 6,2 C 5,6 C 5,0 C 97 % 1002,3 hPa 0,0 l/m 0 min 0 min 0 W/m 3,2 km/h (1 Bft) 100,00 %
13.02.2020 22:36 6,2 C 5,6 C 5,0 C 97 % 1002,4 hPa 0,0 l/m 0 min 0 min 0 W/m 0,0 km/h (0 Bft) 100,00 %
13.02.2020 22:38 6,3 C 5,6 C 5,0 C 97 % 1002,5 hPa 0,0 l/m 0 min 0 min 0 W/m 3,2 km/h (1 Bft) 100,00 %
13.02.2020 22:40 6,3 C 5,6 C 5,0 C 97 % 1002,5 hPa 0,0 l/m 0 min 2 min 0 W/m 3,2 km/h (1 Bft) 100,00 %
13.02.2020 22:42 6,3 C 5,6 C 5,0 C 97 % 1002,5 hPa 0,0 l/m 0 min 2 min 0 W/m 3,2 km/h (1 Bft) 100,00 %
13.02.2020 22:44 6,3 C 5,6 C 5,0 C 97 % 1002,6 hPa 0,0 l/m 0 min 2 min 0 W/m 3,2 km/h (1 Bft) 100,00 %
13.02.2020 22:46 6,3 C 5,6 C 5,0 C 97 % 1002,7 hPa 0,0 l/m 0 min 2 min 0 W/m 6,4 km/h (2 Bft) 95,74 %
13.02.2020 22:48 6,3 C 5,6 C 5,0 C 97 % 1002,7 hPa 0,0 l/m 0 min 2 min 0 W/m 6,4 km/h (2 Bft) 95,74 %
13.02.2020 22:50 6,3 C 5,6 C 5,0 C 97 % 1002,8 hPa 0,0 l/m 0 min 2 min 0 W/m 6,4 km/h (2 Bft) 97,87 %
13.02.2020 22:52 6,3 C 5,6 C 5,0 C 97 % 1002,9 hPa 0,2 l/m 0 min 2 min 0 W/m 0,0 km/h (0 Bft) 95,65 %
13.02.2020 22:54 6,3 C 5,6 C 5,0 C 97 % 1002,9 hPa 0,0 l/m 0 min 2 min 0 W/m 0,0 km/h (0 Bft) 97,87 %
13.02.2020 22:56 6,4 C 5,6 C 5,0 C 97 % 1003,0 hPa 0,0 l/m 0 min 2 min 0 W/m 0,0 km/h (0 Bft) 97,87 %
13.02.2020 22:58 6,4 C 5,6 C 5,0 C 97 % 1003,1 hPa 0,0 l/m 0 min 2 min 0 W/m 16,1 km/h (3 Bft) 97,87 %
13.02.2020 23:00 6,4 C 5,6 C 5,0 C 97 % 1003,2 hPa 0,0 l/m 0 min 2 min 0 W/m 0,0 km/h (0 Bft) 97,87 %
13.02.2020 23:02 6,4 C 5,6 C 5,0 C 97 % 1003,2 hPa 0,0 l/m 0 min 2 min 0 W/m 3,2 km/h (1 Bft) 97,83 %
13.02.2020 23:06 6,4 C 5,6 C 5,0 C 97 % 1003,3 hPa 0,0 l/m 0 min 0 min 0 W/m 12,9 km/h (3 Bft) 97,87 %
13.02.2020 23:08 6,4 C 5,6 C 5,0 C 97 % 1003,4 hPa 0,0 l/m 0 min 2 min 0 W/m 3,2 km/h (1 Bft) 97,87 %
13.02.2020 23:10 6,4 C 5,6 C 5,0 C 97 % 1003,4 hPa 0,0 l/m 0 min 0 min 0 W/m 3,2 km/h (1 Bft) 95,74 %
13.02.2020 23:12 6,4 C 5,6 C 5,0 C 97 % 1003,5 hPa 0,0 l/m 0 min 0 min 0 W/m 6,4 km/h (2 Bft) 97,87 %
13.02.2020 23:14 6,4 C 5,6 C 5,0 C 97 % 1003,6 hPa 0,0 l/m 0 min 2 min 0 W/m 9,7 km/h (2 Bft) 97,83 %
13.02.2020 23:16 6,4 C 5,6 C 5,0 C 97 % 1003,6 hPa 0,0 l/m 0 min 2 min 0 W/m 3,2 km/h (1 Bft) 93,62 %
13.02.2020 23:18 6,5 C 5,6 C 5,0 C 97 % 1003,5 hPa 0,0 l/m 0 min 2 min 0 W/m 3,2 km/h (1 Bft) 97,87 %
13.02.2020 23:20 6,5 C 5,6 C 5,0 C 97 % 1003,6 hPa 0,0 l/m 0 min 2 min 0 W/m 0,0 km/h (0 Bft) 97,92 %
13.02.2020 23:22 6,5 C 5,6 C 5,0 C 97 % 1003,7 hPa 0,0 l/m 0 min 2 min 0 W/m 3,2 km/h (1 Bft) 97,87 %
13.02.2020 23:24 6,5 C 5,6 C 5,0 C 97 % 1003,8 hPa 0,0 l/m 0 min 0 min 0 W/m 6,4 km/h (2 Bft) 97,87 %
13.02.2020 23:26 6,5 C 5,6 C 5,0 C 97 % 1003,8 hPa 0,0 l/m 0 min 2 min 0 W/m 9,7 km/h (2 Bft) 95,74 %
13.02.2020 23:28 6,5 C 5,6 C 5,0 C 97 % 1003,9 hPa 0,0 l/m 0 min 0 min 0 W/m 3,2 km/h (1 Bft) 97,87 %
13.02.2020 23:30 6,5 C 5,6 C 5,0 C 97 % 1003,9 hPa 0,0 l/m 0 min 0 min 0 W/m 3,2 km/h (1 Bft) 97,83 %
13.02.2020 23:32 6,5 C 5,6 C 5,0 C 98 % 1004,0 hPa 0,0 l/m 0 min 2 min 0 W/m 3,2 km/h (1 Bft) 95,74 %
13.02.2020 23:34 6,5 C 5,6 C 5,0 C 98 % 1004,1 hPa 0,0 l/m 0 min 2 min 0 W/m 6,4 km/h (2 Bft) 95,74 %
13.02.2020 23:36 6,5 C 5,6 C 5,0 C 98 % 1004,1 hPa 0,0 l/m 0 min 2 min 0 W/m 6,4 km/h (2 Bft) 97,87 %
13.02.2020 23:38 6,5 C 5,6 C 5,0 C 98 % 1004,1 hPa 0,2 l/m 0 min 2 min 0 W/m 12,9 km/h (3 Bft) 97,87 %
13.02.2020 23:40 6,5 C 5,6 C 5,0 C 98 % 1004,2 hPa 0,0 l/m 0 min 2 min 0 W/m 3,2 km/h (1 Bft) 97,87 %
13.02.2020 23:42 6,5 C 5,6 C 5,0 C 98 % 1004,2 hPa 0,0 l/m 0 min 0 min 0 W/m 6,4 km/h (2 Bft) 97,83 %
13.02.2020 23:44 6,5 C 5,6 C 5,0 C 98 % 1004,3 hPa 0,0 l/m 0 min 0 min 0 W/m 6,4 km/h (2 Bft) 97,87 %
13.02.2020 23:46 6,5 C 5,6 C 5,0 C 98 % 1004,3 hPa 0,0 l/m 0 min 0 min 0 W/m 6,4 km/h (2 Bft) 100,00 %
13.02.2020 23:48 6,5 C 5,6 C 5,0 C 98 % 1004,4 hPa 0,0 l/m 0 min 0 min 0 W/m 3,2 km/h (1 Bft) 100,00 %
13.02.2020 23:50 6,5 C 5,6 C 5,0 C 98 % 1004,5 hPa 0,0 l/m 0 min 0 min 0 W/m 3,2 km/h (1 Bft) 97,87 %
13.02.2020 23:52 6,5 C 5,6 C 5,0 C 98 % 1004,6 hPa 0,0 l/m 0 min 0 min 0 W/m 16,1 km/h (3 Bft) 100,00 %
13.02.2020 23:54 6,5 C 5,6 C 5,0 C 98 % 1004,7 hPa 0,0 l/m 0 min 0 min 0 W/m 6,4 km/h (2 Bft) 100,00 %
13.02.2020 23:56 6,5 C 5,6 C 5,0 C 98 % 1004,8 hPa 0,0 l/m 0 min 0 min 0 W/m 3,2 km/h (1 Bft) 100,00 %
13.02.2020 23:58 6,5 C 5,6 C 5,0 C 98 % 1004,9 hPa 0,0 l/m 0 min 0 min 0 W/m 9,7 km/h (2 Bft) 100,00 %
_ Min-Zeit 05:06 04:20 04:22 00:00 16:26 - - - - 02:26 06:46
Minimum _ 1,9 C 1,1 C 0,6 C 84 % 997,7 hPa - - - - 0,0 km/h (0 Bft) 45,95 %
_ Max-Zeit 16:24 15:08 14:30 23:32 00:00 09:02 13:40 08:50 14:04 11:34 00:28
Maximum _ 8,1 C 8,3 C 6,7 C 98 % 1017,1 hPa 0,2 l/m 2 min 2 min 272 W/m 74,0 km/h
O (8 Bft)
100,00 %
Durchschnitt _ 4,9 C 3,9 C 3,3 C 92 % 1005,2 hPa #8,4 l/m #32 min. #6:08 h 54 W/m 17,7 km/h (3 Bft) 97,29 %
© 2020 W. Hausmann